W4HSV Weather Reports


time (UTC)temp
C
wind
direction
speed
KPH
gust
KPH
rain 1hr
cm
rain 24hr
cm
rain mn
cm
humidity
%
barometer
mb
20260831230120 33 173 6.4 11.3 0.00 0.00 0.00 55 1017.2
20260831230027 33 146 3.2 11.3 0.00 0.00 0.00 55 1017.3
20260831225933 33 181 4.8 11.3 0.00 0.00 0.00 54 1017.3
20260831225821 33 169 6.4 11.3 0.00 0.00 0.00 56 1017.3
20260831225730 33 138 6.4 11.3 0.00 0.00 0.00 55 1017.3
20260831225620 33 171 6.4 11.3 0.00 0.00 0.00 55 1017.4
20260831225527 33 202 6.4 11.3 0.00 0.00 0.00 54 1017.2
20260831225435 33 226 4.8 12.9 0.00 0.00 0.00 55 1017.2
20260831225322 33 187 6.4 12.9 0.00 0.00 0.00 54 1017.4
20260831225229 33 175 4.8 12.9 0.00 0.00 0.00 54 1017.2
20260831225120 33 184 3.2 12.9 0.00 0.00 0.00 56 1017.2
20260831225028 33 158 4.8 12.9 0.00 0.00 0.00 55 1017.2
20260831224936 33 144 6.4 12.9 0.00 0.00 0.00 54 1017.2
20260831224906 33 151 6.4 12.9 0.00 0.00 0.00 55 1017.2
20260831224700 33 115 8.0 12.9 0.00 0.00 0.00 54 1017.3
20260831224532 33 182 6.4 11.3 0.00 0.00 0.00 55 1017.2
20260831224438 33 191 4.8 12.9 0.00 0.00 0.00 55 1017.4
20260831224324 33 136 3.2 12.9 0.00 0.00 0.00 55 1017.3
20260831224232 33 146 3.2 12.9 0.00 0.00 0.00 55 1017.3
20260831224140 33 143 1.6 12.9 0.00 0.00 0.00 53 1017.3
20260831224027 33 142 4.8 12.9 0.00 0.00 0.00 53 1017.2
20260831223920 34 142 8.0 12.9 0.00 0.00 0.00 53 1017.4
20260831223847 34 142 6.4 12.9 0.00 0.00 0.00 55 1017.4
20260831223733 34 142 6.4 12.9 0.00 0.00 0.00 54 1017.4
20260831223620 34 141 4.8 12.9 0.00 0.00 0.00 54 1017.4
20260831223527 34 150 3.2 12.9 0.00 0.00 0.00 53 1017.4
20260831223436 34 168 3.2 12.9 0.00 0.00 0.00 53 1017.4
20260831223410 34 116 3.2 6.4 0.00 0.00 0.00 53 1017.4
20260831223122 34 90 3.2 6.4 0.00 0.00 0.00 52 1017.3
20260831223030 34 44 3.2 6.4 0.00 0.00 0.00 52 1017.4
20260831222937 34 74 3.2 6.4 0.00 0.00 0.00 53 1017.3
20260831222849 34 78 3.2 6.4 0.00 0.00 0.00 55 1017.5
20260831222735 34 19 4.8 6.4 0.00 0.00 0.00 55 1017.4
20260831222622 34 28 3.2 6.4 0.00 0.00 0.00 53 1017.4
20260831222550 34 42 3.2 9.7 0.00 0.00 0.00 53 1017.3
20260831222437 34 27 3.2 11.3 0.00 0.00 0.00 54 1017.4
20260831222323 34 5 3.2 11.3 0.00 0.00 0.00 52 1017.3
20260831222234 34 350 1.6 11.3 0.00 0.00 0.00 53 1017.4
20260831222121 34 87 3.2 12.9 0.00 0.00 0.00 52 1017.4
20260831222029 34 82 3.2 12.9 0.00 0.00 0.00 53 1017.4
20260831221937 34 117 4.8 12.9 0.00 0.00 0.00 55 1017.4
20260831221907 34 110 4.8 12.9 0.00 0.00 0.00 53 1017.4
20260831221625 34 95 6.4 12.9 0.00 0.00 0.00 54 1017.4
20260831221531 34 131 8.0 12.9 0.00 0.00 0.00 55 1017.4
20260831221437 34 207 8.0 12.9 0.00 0.00 0.00 54 1017.4
20260831221323 34 204 8.0 12.9 0.00 0.00 0.00 54 1017.5
20260831221232 34 197 4.8 11.3 0.00 0.00 0.00 54 1017.4
20260831221124 33 183 3.2 11.3 0.00 0.00 0.00 55 1017.5
20260831221031 33 184 3.2 11.3 0.00 0.00 0.00 55 1017.4
20260831220937 33 214 3.2 11.3 0.00 0.00 0.00 55 1017.5
20260831220901 34 167 4.8 11.3 0.00 0.00 0.00 55 1017.5
20260831220727 34 134 6.4 11.3 0.00 0.00 0.00 54 1017.4
20260831220634 34 70 8.0 11.3 0.00 0.00 0.00 53 1017.4
20260831220525 34 150 6.4 11.3 0.00 0.00 0.00 54 1017.4
20260831220432 34 113 4.8 11.3 0.00 0.00 0.00 53 1017.4
20260831220403 34 115 4.8 11.3 0.00 0.00 0.00 53 1017.4
20260831220137 34 106 4.8 11.3 0.00 0.00 0.00 53 1017.4
20260831220026 34 137 4.8 11.3 0.00 0.00 0.00 52 1017.5
20260831215937 34 74 3.2 11.3 0.00 0.00 0.00 51 1017.5
20260831215824 34 58 4.8 11.3 0.00 0.00 0.00 51 1017.6
20260831215751 34 46 4.8 11.3 0.00 0.00 0.00 51 1017.5
20260831215638 34 126 6.4 11.3 0.00 0.00 0.00 51 1017.5
20260831215526 34 119 4.8 9.7 0.00 0.00 0.00 52 1017.6
20260831215433 34 129 4.8 9.7 0.00 0.00 0.00 51 1017.6
20260831215324 34 63 4.8 9.7 0.00 0.00 0.00 52 1017.6
20260831215231 34 107 3.2 9.7 0.00 0.00 0.00 51 1017.5
20260831215139 34 113 1.6 9.7 0.00 0.00 0.00 51 1017.6
20260831215025 34 50 3.2 9.7 0.00 0.00 0.00 51 1017.5
20260831214932 34 50 4.8 11.3 0.00 0.00 0.00 52 1017.6
20260831214907 34 28 4.8 11.3 0.00 0.00 0.00 52 1017.6
20260831214638 34 65 3.2 11.3 0.00 0.00 0.00 54 1017.6
20260831214525 34 80 3.2 11.3 0.00 0.00 0.00 53 1017.6
20260831214432 34 117 3.2 11.3 0.00 0.00 0.00 52 1017.6
20260831214324 34 140 4.8 11.3 0.00 0.00 0.00 53 1017.6
20260831214252 34 105 6.4 11.3 0.00 0.00 0.00 53 1017.5
20260831214139 34 71 6.4 9.7 0.00 0.00 0.00 52 1017.5
20260831214046 34 103 4.8 9.7 0.00 0.00 0.00 51 1017.6
20260831213932 34 59 6.4 9.7 0.00 0.00 0.00 51 1017.5
20260831213840 34 31 6.4 9.7 0.00 0.00 0.00 51 1017.6
20260831213727 34 57 6.4 9.7 0.00 0.00 0.00 51 1017.6
20260831213658 34 137 6.4 9.7 0.00 0.00 0.00 53 1017.6
20260831213544 35 118 4.8 11.3 0.00 0.00 0.00 51 1017.6
20260831213451 35 88 4.8 11.3 0.00 0.00 0.00 52 1017.6
20260831213421 35 130 4.8 11.3 0.00 0.00 0.00 54 1017.6
20260831213133 35 116 3.2 11.3 0.00 0.00 0.00 51 1017.5
20260831213024 35 235 1.6 9.7 0.00 0.00 0.00 51 1017.5
20260831212932 35 235 3.2 9.7 0.00 0.00 0.00 51 1017.6
20260831212819 35 5 3.2 9.7 0.00 0.00 0.00 52 1017.5
20260831212727 35 53 4.8 9.7 0.00 0.00 0.00 52 1017.6
20260831212635 35 89 3.2 9.7 0.00 0.00 0.00 53 1017.5
20260831212542 35 67 3.2 8.0 0.00 0.00 0.00 51 1017.6
20260831212433 34 88 3.2 8.0 0.00 0.00 0.00 52 1017.6
20260831212320 34 350 1.6 8.0 0.00 0.00 0.00 52 1017.6
20260831212227 34 309 1.6 8.0 0.00 0.00 0.00 52 1017.7
20260831212135 34 72 3.2 8.0 0.00 0.00 0.00 52 1017.6
20260831212022 34 144 3.2 8.0 0.00 0.00 0.00 51 1017.7
20260831211929 34 193 3.2 11.3 0.00 0.00 0.00 51 1017.7
20260831211904 34 78 3.2 11.3 0.00 0.00 0.00 51 1017.7
20260831211637 34 157 4.8 11.3 0.00 0.00 0.00 52 1017.7
20260831211525 34 156 4.8 11.3 0.00 0.00 0.00 53 1017.8
20260831211432 34 130 3.2 11.3 0.00 0.00 0.00 53 1017.7
20260831211324 34 33 4.8 11.3 0.00 0.00 0.00 53 1017.7
20260831211230 34 61 4.8 11.3 0.00 0.00 0.00 53 1017.8
20260831211158 34 63 3.2 11.3 0.00 0.00 0.00 55 1017.8
20260831211045 34 98 1.6 11.3 0.00 0.00 0.00 53 1017.9
20260831210933 34 5 3.2 11.3 0.00 0.00 0.00 54 1017.9
20260831210839 34 355 1.6 11.3 0.00 0.00 0.00 54 1017.9
20260831210730 33 285 1.6 11.3 0.00 0.00 0.00 55 1017.9
20260831210637 33 196 4.8 11.3 0.00 0.00 0.00 53 1017.8
20260831210525 33 198 4.8 9.7 0.00 0.00 0.00 53 1017.9
20260831210432 33 211 3.2 11.3 0.00 0.00 0.00 53 1018.0
20260831210403 33 267 1.6 12.9 0.00 0.00 0.00 54 1018.0
20260831210121 33 165 3.2 12.9 0.00 0.00 0.00 55 1018.0
20260831210029 33 121 3.2 12.9 0.00 0.00 0.00 56 1018.0
20260831205936 33 135 4.8 12.9 0.00 0.00 0.00 55 1018.0
20260831205843 33 80 4.8 12.9 0.00 0.00 0.00 56 1018.0
20260831205730 33 134 4.8 12.9 0.00 0.00 0.00 56 1018.0
20260831205622 33 128 4.8 12.9 0.00 0.00 0.00 55 1018.0
20260831205528 33 66 4.8 12.9 0.00 0.00 0.00 57 1018.0
20260831205436 33 118 4.8 9.7 0.00 0.00 0.00 57 1018.0
20260831205322 33 32 3.2 9.7 0.00 0.00 0.00 59 1018.0
20260831205230 33 5 1.6 9.7 0.00 0.00 0.00 57 1018.0
20260831205137 33 34 1.6 9.7 0.00 0.00 0.00 58 1018.1
20260831205030 33 34 3.2 9.7 0.00 0.00 0.00 58 1018.0
20260831204937 33 34 3.2 9.7 0.00 0.00 0.00 58 1018.1
20260831204907 33 34 1.6 9.7 0.00 0.00 0.00 58 1018.1
20260831204620 33 44 1.6 9.7 0.00 0.00 0.00 56 1018.2
20260831204532 33 44 1.6 9.7 0.00 0.00 0.00 58 1018.2
20260831204459 33 36 1.6 9.7 0.00 0.00 0.00 58 1018.2
20260831204325 33 42 3.2 9.7 0.00 0.00 0.00 57 1018.1
20260831204234 33 83 3.2 9.7 0.00 0.00 0.00 58 1018.3
20260831204120 33 75 4.8 9.7 0.00 0.00 0.00 57 1018.2
20260831204027 33 109 4.8 9.7 0.00 0.00 0.00 58 1018.2
20260831203935 33 99 4.8 11.3 0.00 0.00 0.00 57 1018.2
20260831203827 33 103 3.2 11.3 0.00 0.00 0.00 57 1018.3
20260831203734 33 117 3.2 11.3 0.00 0.00 0.00 56 1018.2
20260831203621 33 94 1.6 11.3 0.00 0.00 0.00 56 1018.3
20260831203529 33 122 3.2 11.3 0.00 0.00 0.00 56 1018.3
20260831203436 33 80 3.2 11.3 0.00 0.00 0.00 56 1018.3
20260831203411 33 71 3.2 11.3 0.00 0.00 0.00 55 1018.3
20260831203145 33 90 4.8 11.3 0.00 0.00 0.00 55 1018.3
20260831203031 33 166 3.2 11.3 0.00 0.00 0.00 57 1018.3
20260831202938 33 115 3.2 11.3 0.00 0.00 0.00 55 1018.3
20260831202826 33 108 6.4 11.3 0.00 0.00 0.00 56 1018.3
20260831202738 33 89 6.4 11.3 0.00 0.00 0.00 56 1018.3
20260831202626 34 121 3.2 9.7 0.00 0.00 0.00 56 1018.3
20260831202534 34 111 3.2 9.7 0.00 0.00 0.00 55 1018.4
20260831202501 34 52 4.8 9.7 0.00 0.00 0.00 55 1018.3
20260831202325 34 42 6.4 9.7 0.00 0.00 0.00 55 1018.3
20260831202232 34 33 6.4 9.7 0.00 0.00 0.00 55 1018.3
20260831202123 34 34 4.8 9.7 0.00 0.00 0.00 56 1018.4
20260831202050 34 35 3.2 9.7 0.00 0.00 0.00 56 1018.3
20260831201937 34 46 3.2 9.7 0.00 0.00 0.00 56 1018.3
20260831201908 33 77 4.8 9.7 0.00 0.00 0.00 57 1018.3
20260831201627 33 45 6.4 9.7 0.00 0.00 0.00 58 1018.4
20260831201534 33 38 6.4 11.3 0.00 0.00 0.00 58 1018.4
20260831201421 33 22 6.4 9.7 0.00 0.00 0.00 57 1018.4
20260831201348 33 31 4.8 8.0 0.00 0.00 0.00 59 1018.4
20260831201234 33 5 4.8 8.0 0.00 0.00 0.00 57 1018.4
20260831201122 33 35 3.2 8.0 0.00 0.00 0.00 56 1018.4
20260831201035 33 34 3.2 8.0 0.00 0.00 0.00 55 1018.5
20260831200921 33 36 4.8 8.0 0.00 0.00 0.00 56 1018.4
20260831200828 33 34 4.8 8.0 0.00 0.00 0.00 56 1018.5
20260831200735 33 57 4.8 8.0 0.00 0.00 0.00 56 1018.5
20260831200624 33 28 4.8 8.0 0.00 0.00 0.00 58 1018.5
20260831200531 33 67 3.2 8.0 0.00 0.00 0.00 56 1018.5
20260831200442 33 70 3.2 8.0 0.00 0.00 0.00 57 1018.6
20260831200411 33 76 1.6 8.0 0.00 0.00 0.00 58 1018.6
20260831200124 33 355 3.2 8.0 0.00 0.00 0.00 60 1018.6
20260831200031 33 342 4.8 8.0 0.00 0.00 0.00 60 1018.6
20260831195942 33 9 4.8 8.0 0.00 0.00 0.00 60 1018.6
20260831195847 33 344 3.2 6.4 0.00 0.00 0.00 58 1018.6
20260831195733 33 355 3.2 6.4 0.00 0.00 0.00 58 1018.7
20260831195622 33 23 4.8 6.4 0.00 0.00 0.00 58 1018.6
20260831195550 33 38 3.2 6.4 0.00 0.00 0.00 58 1018.6
20260831195436 33 5 3.2 8.0 0.00 0.00 0.00 58 1018.7
20260831195323 33 322 3.2 8.0 0.00 0.00 0.00 58 1018.7
20260831195235 33 313 1.6 8.0 0.00 0.00 0.00 58 1018.7
20260831195123 33 331 3.2 8.0 0.00 0.00 0.00 58 1018.6
20260831195030 33 314 3.2 8.0 0.00 0.00 0.00 58 1018.7
20260831194958 33 296 3.2 8.0 0.00 0.00 0.00 58 1018.8
20260831194908 33 294 3.2 8.0 0.00 0.00 0.00 58 1018.8
20260831194646 33 42 6.4 8.0 0.00 0.00 0.00 58 1018.7
20260831194532 33 41 4.8 8.0 0.00 0.00 0.00 59 1018.7
20260831194420 33 360 3.2 8.0 0.00 0.00 0.00 58 1018.7
20260831194328 33 5 3.2 9.7 0.00 0.00 0.00 59 1018.7
20260831194236 33 5 4.8 9.7 0.00 0.00 0.00 58 1018.7
20260831194128 33 355 4.8 9.7 0.00 0.00 0.00 58 1018.6
20260831194035 33 43 4.8 9.7 0.00 0.00 0.00 60 1018.7
20260831193923 33 9 4.8 9.7 0.00 0.00 0.00 61 1018.8
20260831193831 33 15 4.8 9.7 0.00 0.00 0.00 61 1018.7
20260831193737 33 22 4.8 9.7 0.00 0.00 0.00 60 1018.8
20260831193624 33 347 6.4 9.7 0.00 0.00 0.00 59 1018.7
20260831193556 33 327 6.4 9.7 0.00 0.00 0.00 59 1018.8
20260831193504 33 326 6.4 9.7 0.00 0.00 0.00 58 1018.8
20260831193435 33 326 8.0 9.7 0.00 0.00 0.00 58 1018.7
20260831193127 33 314 6.4 8.0 0.00 0.00 0.00 58 1018.9
20260831193034 33 303 4.8 8.0 0.00 0.00 0.00 59 1018.9
20260831192926 33 327 4.8 8.0 0.00 0.00 0.00 58 1018.8
20260831192833 33 360 3.2 8.0 0.00 0.00 0.00 57 1018.8
20260831192721 33 344 3.2 8.0 0.00 0.00 0.00 58 1018.8
20260831192629 33 301 3.2 8.0 0.00 0.00 0.00 57 1018.9
20260831192536 33 341 3.2 8.0 0.00 0.00 0.00 58 1018.9
20260831192428 33 320 4.8 8.0 0.00 0.00 0.00 58 1018.8
20260831192356 33 314 4.8 8.0 0.00 0.00 0.00 57 1018.8
20260831192222 33 315 4.8 8.0 0.00 0.00 0.00 57 1019.0
20260831192129 33 5 3.2 8.0 0.00 0.00 0.00 58 1019.0
20260831192037 33 336 3.2 8.0 0.00 0.00 0.00 57 1018.9
20260831191944 33 313 3.2 8.0 0.00 0.00 0.00 57 1018.9
20260831191918 33 318 4.8 8.0 0.00 0.00 0.00 58 1018.9
20260831191632 33 305 4.8 8.0 0.00 0.00 0.00 57 1019.1
20260831191540 33 308 6.4 8.0 0.00 0.00 0.00 58 1019.0
20260831191447 33 309 6.4 9.7 0.00 0.00 0.00 57 1019.0
20260831191334 33 327 6.4 9.7 0.00 0.00 0.00 57 1019.0
20260831191220 33 323 6.4 9.7 0.00 0.00 0.00 59 1019.0
20260831191131 33 322 4.8 9.7 0.00 0.00 0.00 59 1019.1
20260831191039 33 355 4.8 9.7 0.00 0.00 0.00 60 1019.1
20260831190926 33 5 4.8 9.7 0.00 0.00 0.00 61 1019.1
20260831190855 33 360 4.8 9.7 0.00 0.00 0.00 61 1019.1
20260831190741 33 355 6.4 9.7 0.00 0.00 0.00 63 1019.0
20260831190647 33 16 6.4 9.7 0.00 0.00 0.00 62 1019.1
20260831190532 33 18 4.8 11.3 0.00 0.00 0.00 62 1019.1
20260831190443 33 22 4.8 8.0 0.00 0.00 0.00 62 1019.1
20260831190413 33 355 4.8 6.4 0.00 0.00 0.00 64 1019.1
20260831190147 32 325 3.2 6.4 0.00 0.00 0.00 60 1019.1
20260831190034 32 5 3.2 6.4 0.00 0.00 0.00 61 1019.1
20260831185942 32 5 4.8 6.4 0.00 0.00 0.00 60 1019.2
20260831185833 32 322 4.8 6.4 0.00 0.00 0.00 62 1019.2
20260831185800 32 323 4.8 6.4 0.00 0.00 0.00 60 1019.2
20260831185626 32 5 4.8 6.4 0.00 0.00 0.00 60 1019.1
20260831185532 32 13 4.8 6.4 0.00 0.00 0.00 60 1019.2
20260831185420 32 324 4.8 6.4 0.00 0.00 0.00 59 1019.2
20260831185328 32 5 4.8 6.4 0.00 0.00 0.00 59 1019.2
20260831185255 32 23 3.2 6.4 0.00 0.00 0.00 61 1019.2
20260831185146 32 39 1.6 8.0 0.00 0.00 0.00 59 1019.2
20260831185032 32 55 1.6 8.0 0.00 0.00 0.00 59 1019.3
20260831184940 32 55 3.2 8.0 0.00 0.00 0.00 59 1019.2
20260831184912 32 28 1.6 8.0 0.00 0.00 0.00 60 1019.2
20260831184624 32 53 3.2 8.0 0.00 0.00 0.00 60 1019.3
20260831184536 32 53 4.8 8.0 0.00 0.00 0.00 60 1019.3
20260831184444 32 46 6.4 8.0 0.00 0.00 0.00 60 1019.2
20260831184330 32 39 4.8 8.0 0.00 0.00 0.00 61 1019.2
20260831184238 32 16 4.8 6.4 0.00 0.00 0.00 62 1019.4
20260831184126 32 355 3.2 6.4 0.00 0.00 0.00 62 1019.3
20260831184033 32 335 3.2 6.4 0.00 0.00 0.00 63 1019.4
20260831183945 32 319 3.2 9.7 0.00 0.00 0.00 62 1019.4
20260831183831 32 321 3.2 9.7 0.00 0.00 0.00 61 1019.4
20260831183738 32 321 4.8 9.7 0.00 0.00 0.00 61 1019.4
20260831183627 32 317 3.2 9.7 0.00 0.00 0.00 62 1019.4
20260831183534 32 5 3.2 9.7 0.00 0.00 0.00 62 1019.5
20260831183500 32 44 3.2 9.7 0.00 0.00 0.00 62 1019.5
20260831183412 32 44 4.8 9.7 0.00 0.00 0.00 63 1019.4
20260831183125 32 19 6.4 9.7 0.00 0.00 0.00 63 1019.5
20260831183053 32 30 4.8 9.7 0.00 0.00 0.00 63 1019.5
20260831182940 32 5 4.8 9.7 0.00 0.00 0.00 63 1019.5
20260831182827 32 350 4.8 9.7 0.00 0.00 0.00 64 1019.6
20260831182738 32 355 6.4 9.7 0.00 0.00 0.00 63 1019.6
20260831182626 32 22 4.8 8.0 0.00 0.00 0.00 62 1019.7
20260831182554 32 360 4.8 8.0 0.00 0.00 0.00 62 1019.6
20260831182421 32 5 3.2 8.0 0.00 0.00 0.00 62 1019.6
20260831182330 32 13 3.2 8.0 0.00 0.00 0.00 62 1019.7
20260831182257 32 9 3.2 8.0 0.00 0.00 0.00 62 1019.7
20260831182128 32 360 4.8 8.0 0.00 0.00 0.00 61 1019.7
20260831182036 32 39 4.8 8.0 0.00 0.00 0.00 61 1019.7
20260831182004 32 53 4.8 8.0 0.00 0.00 0.00 62 1019.7
20260831181934 32 36 4.8 8.0 0.00 0.00 0.00 63 1019.7
20260831181646 32 351 3.2 8.0 0.00 0.00 0.00 62 1019.7
20260831181536 32 5 3.2 8.0 0.00 0.00 0.00 61 1019.7
20260831181423 32 62 3.2 8.0 0.00 0.00 0.00 61 1019.7
20260831181331 32 43 4.8 8.0 0.00 0.00 0.00 61 1019.7
20260831181237 32 66 4.8 8.0 0.00 0.00 0.00 61 1019.7
20260831181125 32 49 4.8 8.0 0.00 0.00 0.00 63 1019.6
20260831181032 32 5 4.8 8.0 0.00 0.00 0.00 63 1019.7
20260831180923 32 311 4.8 8.0 0.00 0.00 0.00 63 1019.6
20260831180830 32 327 6.4 8.0 0.00 0.00 0.00 64 1019.7
20260831180737 32 335 6.4 8.0 0.00 0.00 0.00 63 1019.6
20260831180623 32 17 6.4 8.0 0.00 0.00 0.00 64 1019.7
20260831180532 32 360 4.8 8.0 0.00 0.00 0.00 63 1019.7
20260831180423 32 310 4.8 8.0 0.00 0.00 0.00 63 1019.6
20260831180354 32 320 3.2 8.0 0.00 0.00 0.00 62 1019.6
20260831180127 32 322 3.2 8.0 0.00 0.00 0.00 62 1019.8
20260831180054 32 283 3.2 8.0 0.00 0.00 0.00 61 1019.8
20260831175921 32 216 3.2 8.0 0.00 0.00 0.00 61 1019.8
20260831175833 32 216 3.2 8.0 0.00 0.00 0.00 61 1019.9
20260831175739 32 207 4.8 8.0 0.00 0.00 0.00 61 1019.8
20260831175626 32 182 4.8 8.0 0.00 0.00 0.00 61 1019.8
20260831175535 32 167 3.2 6.4 0.00 0.00 0.00 62 1019.9
20260831175442 32 184 1.6 4.8 0.00 0.00 0.00 61 1019.9
20260831175328 32 217 1.6 4.8 0.00 0.00 0.00 61 1020.0
20260831175219 32 208 1.6 4.8 0.00 0.00 0.00 61 1020.0
20260831175147 32 273 1.6 4.8 0.00 0.00 0.00 61 1019.9
20260831175033 32 273 3.2 4.8 0.00 0.00 0.00 61 1019.9
20260831175001 32 273 3.2 4.8 0.00 0.00 0.00 61 1019.9
20260831174931 32 273 3.2 4.8 0.00 0.00 0.00 62 1019.9
20260831174627 32 275 1.6 4.8 0.00 0.00 0.00 61 1020.0
20260831174535 32 263 0.0 4.8 0.00 0.00 0.00 62 1020.0
20260831174442 32 206 1.6 4.8 0.00 0.00 0.00 62 1019.9
20260831174348 32 206 1.6 6.4 0.00 0.00 0.00 61 1020.1
20260831174254 32 206 3.2 6.4 0.00 0.00 0.00 62 1020.1
20260831174121 32 153 1.6 6.4 0.00 0.00 0.00 61 1020.1
20260831174029 32 155 1.6 6.4 0.00 0.00 0.00 62 1020.1
20260831173921 32 271 1.6 6.4 0.00 0.00 0.00 62 1020.2
20260831173827 32 276 0.0 6.4 0.00 0.00 0.00 63 1020.1
20260831173734 32 32 1.6 6.4 0.00 0.00 0.00 64 1020.1
20260831173621 32 32 3.2 6.4 0.00 0.00 0.00 60 1020.1
20260831173549 32 5 3.2 6.4 0.00 0.00 0.00 60 1020.1
20260831173436 32 355 1.6 9.7 0.00 0.00 0.00 61 1020.2
20260831173410 32 342 1.6 9.7 0.00 0.00 0.00 61 1020.2
20260831173125 32 245 3.2 9.7 0.00 0.00 0.00 59 1020.2
20260831173052 32 273 3.2 9.7 0.00 0.00 0.00 62 1020.1
20260831172938 32 290 3.2 9.7 0.00 0.00 0.00 61 1020.2
20260831172824 32 155 3.2 9.7 0.00 0.00 0.00 60 1020.3
20260831172736 32 199 3.2 9.7 0.00 0.00 0.00 61 1020.2
20260831172624 32 173 6.4 9.7 0.00 0.00 0.00 63 1020.2
20260831172531 32 202 4.8 12.9 0.00 0.00 0.00 63 1020.3
20260831172439 32 192 4.8 12.9 0.00 0.00 0.00 61 1020.3
20260831172346 32 232 3.2 12.9 0.00 0.00 0.00 63 1020.2
20260831172252 32 180 3.2 12.9 0.00 0.00 0.00 61 1020.2
20260831172123 32 76 4.8 12.9 0.00 0.00 0.00 61 1020.3
20260831172031 32 112 4.8 19.3 0.00 0.00 0.00 61 1020.3
20260831171959 32 113 6.4 19.3 0.00 0.00 0.00 60 1020.4
20260831171908 32 129 6.4 19.3 0.00 0.00 0.00 62 1020.4
20260831171622 32 162 6.4 19.3 0.00 0.00 0.00 61 1020.3
20260831171535 32 139 4.8 19.3 0.00 0.00 0.00 60 1020.3
20260831171442 32 173 3.2 19.3 0.00 0.00 0.00 60 1020.2
20260831171329 32 185 8.0 19.3 0.00 0.00 0.00 60 1020.2
20260831171236 32 141 9.7 19.3 0.00 0.00 0.00 61 1020.4
20260831171123 32 188 6.4 20.9 0.00 0.00 0.00 62 1020.3
20260831171031 32 188 4.8 11.3 0.00 0.00 0.00 63 1020.4
20260831170923 32 232 6.4 11.3 0.00 0.00 0.00 64 1020.4
20260831170831 32 194 6.4 11.3 0.00 0.00 0.00 64 1020.4
20260831170720 32 190 6.4 11.3 0.00 0.00 0.00 62 1020.4
20260831170628 32 217 6.4 11.3 0.00 0.00 0.00 61 1020.4
20260831170536 32 259 6.4 11.3 0.00 0.00 0.00 62 1020.4
20260831170447 32 219 3.2 16.1 0.00 0.00 0.00 62 1020.4
20260831170356 32 162 3.2 16.1 0.00 0.00 0.00 62 1020.4
20260831170128 32 311 3.2 16.1 0.00 0.00 0.00 62 1020.5
20260831170036 32 315 6.4 16.1 0.00 0.00 0.00 65 1020.4
20260831165923 32 213 8.0 16.1 0.00 0.00 0.00 63 1020.5
20260831165836 32 197 4.8 16.1 0.00 0.00 0.00 65 1020.6
20260831165723 31 168 4.8 16.1 0.00 0.00 0.00 64 1020.5
20260831165630 31 177 8.0 16.1 0.00 0.00 0.00 64 1020.6
20260831165536 31 186 11.3 16.1 0.00 0.00 0.00 65 1020.5
20260831165424 31 237 12.9 16.1 0.00 0.00 0.00 65 1020.5
20260831165331 31 171 12.9 16.1 0.00 0.00 0.00 65 1020.5
20260831165223 31 171 8.0 14.5 0.00 0.00 0.00 64 1020.5
20260831165130 31 171 6.4 14.5 0.00 0.00 0.00 68 1020.5
20260831165037 31 126 4.8 14.5 0.00 0.00 0.00 66 1020.5
20260831164925 31 118 6.4 14.5 0.00 0.00 0.00 65 1020.6
20260831164859 31 132 6.4 14.5 0.00 0.00 0.00 65 1020.6
20260831164632 31 137 6.4 14.5 0.00 0.00 0.00 68 1020.6
20260831164520 31 162 3.2 9.7 0.00 0.00 0.00 65 1020.6
20260831164447 31 225 0.0 9.7 0.00 0.00 0.00 65 1020.5
20260831164335 31 247 1.6 9.7 0.00 0.00 0.00 65 1020.6
20260831164221 31 247 1.6 11.3 0.00 0.00 0.00 65 1020.5
20260831164132 31 244 1.6 11.3 0.00 0.00 0.00 64 1020.5
20260831164020 31 208 1.6 11.3 0.00 0.00 0.00 64 1020.5
20260831163928 31 236 1.6 11.3 0.00 0.00 0.00 64 1020.5
20260831163835 31 236 3.2 11.3 0.00 0.00 0.00 65 1020.5
20260831163722 31 231 6.4 11.3 0.00 0.00 0.00 65 1020.6
20260831163634 31 207 6.4 11.3 0.00 0.00 0.00 67 1020.7
20260831163520 31 178 8.0 11.3 0.00 0.00 0.00 66 1020.6
20260831163428 31 193 8.0 11.3 0.00 0.00 0.00 66 1020.6
20260831163359 31 144 6.4 11.3 0.00 0.00 0.00 68 1020.6
20260831163133 31 192 4.8 11.3 0.00 0.00 0.00 67 1020.6
20260831163025 31 195 1.6 11.3 0.00 0.00 0.00 66 1020.7
20260831162933 31 245 1.6 12.9 0.00 0.00 0.00 66 1020.6
20260831162901 31 265 1.6 12.9 0.00 0.00 0.00 65 1020.7
20260831162726 31 290 4.8 12.9 0.00 0.00 0.00 66 1020.6
20260831162634 31 245 6.4 12.9 0.00 0.00 0.00 66 1020.7
20260831162526 31 257 4.8 12.9 0.00 0.00 0.00 66 1020.7
20260831162434 31 245 6.4 16.1 0.00 0.00 0.00 66 1020.6
20260831162321 31 221 8.0 16.1 0.00 0.00 0.00 65 1020.7
20260831162229 31 175 8.0 16.1 0.00 0.00 0.00 66 1020.7
20260831162136 31 186 8.0 16.1 0.00 0.00 0.00 66 1020.7
20260831162022 31 196 8.0 16.1 0.00 0.00 0.00 65 1020.6
20260831161933 31 216 6.4 16.1 0.00 0.00 0.00 65 1020.7
20260831161903 31 195 8.0 16.1 0.00 0.00 0.00 65 1020.7
20260831161637 31 204 9.7 16.1 0.00 0.00 0.00 65 1020.6
20260831161524 31 186 6.4 16.1 0.00 0.00 0.00 65 1020.5
20260831161436 31 162 3.2 12.9 0.00 0.00 0.00 65 1020.6
20260831161322 31 334 6.4 12.9 0.00 0.00 0.00 65 1020.6
20260831161230 31 268 8.0 12.9 0.00 0.00 0.00 67 1020.7
20260831161139 31 200 8.0 12.9 0.00 0.00 0.00 68 1020.6
20260831161026 31 219 6.4 12.9 0.00 0.00 0.00 67 1020.7
20260831160934 31 275 4.8 12.9 0.00 0.00 0.00 68 1020.7
20260831160827 31 175 3.2 12.9 0.00 0.00 0.00 67 1020.7
20260831160734 31 200 6.4 12.9 0.00 0.00 0.00 67 1020.8
20260831160701 31 171 8.0 12.9 0.00 0.00 0.00 66 1020.7
20260831160527 31 196 6.4 12.9 0.00 0.00 0.00 69 1020.7
20260831160434 31 199 6.4 9.7 0.00 0.00 0.00 69 1020.7
20260831160408 31 203 6.4 9.7 0.00 0.00 0.00 68 1020.7
20260831160121 31 272 4.8 11.3 0.00 0.00 0.00 69 1020.8
20260831160029 31 290 4.8 14.5 0.00 0.00 0.00 69 1020.7
20260831155936 31 344 4.8 14.5 0.00 0.00 0.00 68 1020.8
20260831155822 31 280 4.8 14.5 0.00 0.00 0.00 68 1020.8
20260831155734 31 220 6.4 14.5 0.00 0.00 0.00 68 1020.8
20260831155621 31 277 6.4 14.5 0.00 0.00 0.00 68 1020.8
20260831155528 31 213 4.8 14.5 0.00 0.00 0.00 69 1020.8
20260831155436 31 262 4.8 14.5 0.00 0.00 0.00 68 1020.7
20260831155322 31 268 6.4 14.5 0.00 0.00 0.00 69 1020.8
20260831155230 31 234 8.0 14.5 0.00 0.00 0.00 68 1020.7
20260831155121 31 229 8.0 16.1 0.00 0.00 0.00 69 1020.8
20260831155029 31 271 4.8 14.5 0.00 0.00 0.00 69 1020.8
20260831154936 31 243 3.2 14.5 0.00 0.00 0.00 70 1020.8
20260831154908 31 247 4.8 14.5 0.00 0.00 0.00 70 1020.8
20260831154625 31 174 8.0 14.5 0.00 0.00 0.00 70 1020.8
20260831154532 31 223 6.4 14.5 0.00 0.00 0.00 70 1020.8
20260831154420 31 232 6.4 14.5 0.00 0.00 0.00 69 1020.8
20260831154328 31 229 9.7 14.5 0.00 0.00 0.00 70 1020.8
20260831154236 31 234 8.0 14.5 0.00 0.00 0.00 70 1020.8
20260831154143 31 117 4.8 12.9 0.00 0.00 0.00 71 1020.9
20260831154033 31 165 4.8 12.9 0.00 0.00 0.00 71 1020.8
20260831153920 31 196 4.8 12.9 0.00 0.00 0.00 70 1020.8
20260831153828 31 167 4.8 12.9 0.00 0.00 0.00 70 1020.8
20260831153755 31 202 6.4 12.9 0.00 0.00 0.00 69 1020.8
20260831153622 31 249 8.0 12.9 0.00 0.00 0.00 70 1020.8
20260831153530 31 239 6.4 12.9 0.00 0.00 0.00 70 1020.8
20260831153440 31 180 6.4 12.9 0.00 0.00 0.00 69 1020.7
20260831153410 31 237 4.8 12.9 0.00 0.00 0.00 71 1020.7
20260831153122 30 275 3.2 12.9 0.00 0.00 0.00 70 1020.8
20260831153029 30 213 4.8 12.9 0.00 0.00 0.00 71 1020.7
20260831152920 30 331 6.4 12.9 0.00 0.00 0.00 71 1020.7
20260831152829 30 211 8.0 12.9 0.00 0.00 0.00 72 1020.7
20260831152737 30 173 9.7 12.9 0.00 0.00 0.00 71 1020.7
20260831152624 30 213 6.4 12.9 0.00 0.00 0.00 71 1020.7
20260831152531 30 212 6.4 12.9 0.00 0.00 0.00 71 1020.7
20260831152421 30 220 3.2 17.7 0.00 0.00 0.00 71 1020.7
20260831152327 30 323 3.2 17.7 0.00 0.00 0.00 70 1020.6
20260831152235 30 92 4.8 17.7 0.00 0.00 0.00 75 1020.7
20260831152142 30 181 4.8 17.7 0.00 0.00 0.00 74 1020.7
20260831152028 30 217 4.8 17.7 0.00 0.00 0.00 73 1020.7
20260831151936 30 133 6.4 17.7 0.00 0.00 0.00 72 1020.7
20260831151910 30 150 6.4 17.7 0.00 0.00 0.00 72 1020.7
20260831151623 30 223 11.3 17.7 0.00 0.00 0.00 72 1020.7
20260831151530 30 182 11.3 17.7 0.00 0.00 0.00 72 1020.8
20260831151458 30 164 9.7 14.5 0.00 0.00 0.00 72 1020.8
20260831151322 30 183 6.4 14.5 0.00 0.00 0.00 73 1020.7
20260831151231 30 227 6.4 14.5 0.00 0.00 0.00 72 1020.7
20260831151200 30 207 8.0 14.5 0.00 0.00 0.00 72 1020.7
20260831151025 30 140 4.8 14.5 0.00 0.00 0.00 73 1020.8
20260831150953 30 151 4.8 14.5 0.00 0.00 0.00 73 1020.8
20260831150859 30 165 8.0 14.5 0.00 0.00 0.00 72 1020.8
20260831150725 30 213 8.0 14.5 0.00 0.00 0.00 73 1020.7
20260831150634 30 190 8.0 14.5 0.00 0.00 0.00 73 1020.7
20260831150526 30 160 8.0 16.1 0.00 0.00 0.00 72 1020.8
20260831150432 30 168 8.0 16.1 0.00 0.00 0.00 74 1020.7
20260831150403 30 142 8.0 16.1 0.00 0.00 0.00 74 1020.7
20260831150137 30 144 6.4 16.1 0.00 0.00 0.00 74 1020.8
20260831150027 30 150 6.4 16.1 0.00 0.00 0.00 73 1020.7
20260831145935 29 196 8.0 16.1 0.00 0.00 0.00 74 1020.7
20260831145823 29 215 11.3 16.1 0.00 0.00 0.00 73 1020.7
20260831145750 29 205 9.7 16.1 0.00 0.00 0.00 73 1020.8
20260831145656 29 179 6.4 16.1 0.00 0.00 0.00 74 1020.7
20260831145522 29 186 1.6 16.1 0.00 0.00 0.00 74 1020.8
20260831145431 29 179 3.2 16.1 0.00 0.00 0.00 73 1020.8
20260831145342 29 169 6.4 16.1 0.00 0.00 0.00 73 1020.7
20260831145227 29 172 8.0 16.1 0.00 0.00 0.00 73 1020.8
20260831145135 29 198 9.7 17.7 0.00 0.00 0.00 74 1020.8
20260831145022 29 209 9.7 17.7 0.00 0.00 0.00 74 1020.8
20260831144950 29 203 11.3 17.7 0.00 0.00 0.00 73 1020.8
20260831144922 29 158 9.7 17.7 0.00 0.00 0.00 73 1020.8
20260831144636 29 173 6.4 17.7 0.00 0.00 0.00 75 1020.8
20260831144523 29 163 8.0 17.7 0.00 0.00 0.00 74 1020.8
20260831144431 29 252 11.3 17.7 0.00 0.00 0.00 73 1020.8
20260831144339 29 172 12.9 17.7 0.00 0.00 0.00 73 1020.7
20260831144231 29 215 11.3 16.1 0.00 0.00 0.00 73 1020.8
20260831144139 29 194 11.3 17.7 0.00 0.00 0.00 73 1020.7
20260831144046 29 188 11.3 17.7 0.00 0.00 0.00 73 1020.8
20260831143932 29 248 9.7 17.7 0.00 0.00 0.00 73 1020.7
20260831143820 29 223 8.0 17.7 0.00 0.00 0.00 73 1020.8
20260831143727 29 191 9.7 17.7 0.00 0.00 0.00 73 1020.8
20260831143634 29 176 9.7 17.7 0.00 0.00 0.00 73 1020.8
20260831143525 29 205 9.7 17.7 0.00 0.00 0.00 73 1020.8
20260831143453 29 251 11.3 17.7 0.00 0.00 0.00 73 1020.8
20260831143402 29 221 9.7 17.7 0.00 0.00 0.00 73 1020.8
20260831143155 29 197 8.0 17.7 0.00 0.00 0.00 73 1020.7
20260831143022 29 167 4.8 14.5 0.00 0.00 0.00 75 1020.7
20260831142933 29 188 3.2 14.5 0.00 0.00 0.00 74 1020.8
20260831142821 29 166 4.8 14.5 0.00 0.00 0.00 74 1020.8
20260831142727 29 190 8.0 14.5 0.00 0.00 0.00 73 1020.7
20260831142634 29 180 6.4 14.5 0.00 0.00 0.00 73 1020.7
20260831142520 29 190 4.8 14.5 0.00 0.00 0.00 73 1020.7
20260831142431 29 170 8.0 14.5 0.00 0.00 0.00 73 1020.7
20260831142339 29 146 8.0 14.5 0.00 0.00 0.00 73 1020.7
20260831142245 29 124 9.7 14.5 0.00 0.00 0.00 75 1020.7
20260831142151 29 144 9.7 14.5 0.00 0.00 0.00 74 1020.7
20260831142038 29 209 8.0 14.5 0.00 0.00 0.00 74 1020.8
20260831141925 29 205 8.0 14.5 0.00 0.00 0.00 74 1020.7
20260831141859 29 195 6.4 16.1 0.00 0.00 0.00 73 1020.7
20260831141633 29 223 8.0 16.1 0.00 0.00 0.00 74 1020.7
20260831141540 28 178 8.0 16.1 0.00 0.00 0.00 74 1020.7
20260831141427 28 205 6.4 16.1 0.00 0.00 0.00 74 1020.7
20260831141334 28 212 8.0 16.1 0.00 0.00 0.00 74 1020.6
20260831141226 28 178 8.0 16.1 0.00 0.00 0.00 75 1020.8
20260831141135 28 177 9.7 16.1 0.00 0.00 0.00 75 1020.7
20260831141021 28 157 11.3 16.1 0.00 0.00 0.00 75 1020.7
20260831140929 28 134 9.7 16.1 0.00 0.00 0.00 75 1020.7
20260831140837 28 165 11.3 16.1 0.00 0.00 0.00 75 1020.7
20260831140727 28 118 9.7 16.1 0.00 0.00 0.00 74 1020.7
20260831140635 28 87 9.7 16.1 0.00 0.00 0.00 76 1020.7
20260831140522 28 132 8.0 12.9 0.00 0.00 0.00 76 1020.6
20260831140428 28 155 4.8 12.9 0.00 0.00 0.00 77 1020.6
20260831140358 28 161 4.8 11.3 0.00 0.00 0.00 75 1020.6
20260831140137 28 179 4.8 9.7 0.00 0.00 0.00 76 1020.7
20260831140025 28 192 6.4 11.3 0.00 0.00 0.00 76 1020.7
20260831135953 28 194 6.4 16.1 0.00 0.00 0.00 76 1020.7
20260831135839 28 189 6.4 16.1 0.00 0.00 0.00 76 1020.7
20260831135747 28 178 6.4 16.1 0.00 0.00 0.00 77 1020.7
20260831135654 28 180 6.4 16.1 0.00 0.00 0.00 77 1020.8
20260831135539 28 196 4.8 16.1 0.00 0.00 0.00 78 1020.7
20260831135430 28 153 4.8 16.1 0.00 0.00 0.00 78 1020.7
20260831135336 28 160 6.4 16.1 0.00 0.00 0.00 77 1020.7
20260831135224 28 99 9.7 16.1 0.00 0.00 0.00 77 1020.8
20260831135131 28 211 8.0 16.1 0.00 0.00 0.00 77 1020.7
20260831135038 28 188 6.4 16.1 0.00 0.00 0.00 77 1020.7
20260831134927 28 140 4.8 14.5 0.00 0.00 0.00 78 1020.8
20260831134900 28 148 4.8 14.5 0.00 0.00 0.00 78 1020.8
20260831134634 28 180 8.0 14.5 0.00 0.00 0.00 78 1020.7
20260831134522 28 139 8.0 14.5 0.00 0.00 0.00 78 1020.7
20260831134429 28 137 6.4 11.3 0.00 0.00 0.00 78 1020.8
20260831134357 28 188 6.4 11.3 0.00 0.00 0.00 78 1020.7
20260831134226 28 126 6.4 11.3 0.00 0.00 0.00 78 1020.7
20260831134134 28 198 6.4 11.3 0.00 0.00 0.00 77 1020.8
20260831134021 28 191 8.0 11.3 0.00 0.00 0.00 78 1020.7
20260831133928 28 192 8.0 12.9 0.00 0.00 0.00 78 1020.7
20260831133836 28 163 8.0 11.3 0.00 0.00 0.00 78 1020.7
20260831133728 27 182 6.4 11.3 0.00 0.00 0.00 79 1020.7
20260831133636 27 166 4.8 9.7 0.00 0.00 0.00 80 1020.8
20260831133524 27 113 6.4 9.7 0.00 0.00 0.00 79 1020.7
20260831133453 27 194 6.4 9.7 0.00 0.00 0.00 79 1020.7
20260831133402 27 186 6.4 9.7 0.00 0.00 0.00 79 1020.7
20260831133119 27 209 4.8 11.3 0.00 0.00 0.00 80 1020.7
20260831133028 27 198 4.8 11.3 0.00 0.00 0.00 80 1020.6
20260831132935 27 144 4.8 11.3 0.00 0.00 0.00 81 1020.6
20260831132823 27 119 4.8 11.3 0.00 0.00 0.00 81 1020.6
20260831132729 27 57 4.8 11.3 0.00 0.00 0.00 80 1020.6
20260831132621 27 144 6.4 11.3 0.00 0.00 0.00 81 1020.7
20260831132528 27 134 6.4 11.3 0.00 0.00 0.00 81 1020.6
20260831132435 27 157 6.4 9.7 0.00 0.00 0.00 81 1020.6
20260831132343 27 186 6.4 9.7 0.00 0.00 0.00 81 1020.6
20260831132229 27 146 6.4 8.0 0.00 0.00 0.00 81 1020.7
20260831132157 27 123 4.8 9.7 0.00 0.00 0.00 83 1020.6
20260831132023 27 130 4.8 8.0 0.00 0.00 0.00 83 1020.6
20260831131935 26 137 6.4 8.0 0.00 0.00 0.00 83 1020.7
20260831131906 26 132 6.4 8.0 0.00 0.00 0.00 83 1020.7
20260831131620 26 123 4.8 8.0 0.00 0.00 0.00 84 1020.7
20260831131527 26 160 4.8 8.0 0.00 0.00 0.00 84 1020.7
20260831131439 26 146 4.8 8.0 0.00 0.00 0.00 84 1020.5
20260831131326 26 137 4.8 8.0 0.00 0.00 0.00 84 1020.6
20260831131234 26 126 6.4 8.0 0.00 0.00 0.00 84 1020.5
20260831131121 26 120 6.4 8.0 0.00 0.00 0.00 84 1020.5
20260831131028 26 124 4.8 9.7 0.00 0.00 0.00 86 1020.5
20260831130955 26 111 4.8 6.4 0.00 0.00 0.00 86 1020.5
20260831130825 25 148 1.6 4.8 0.00 0.00 0.00 87 1020.5
20260831130751 25 133 0.0 4.8 0.00 0.00 0.00 86 1020.5
20260831130639 25 116 0.0 0.0 0.00 0.00 0.00 86 1020.5
20260831130546 25 126 0.0 0.0 0.00 0.00 0.00 87 1020.5
20260831130453 25 116 0.0 0.0 0.00 0.00 0.00 87 1020.5
20260831130423 25 103 0.0 0.0 0.00 0.00 0.00 88 1020.4
20260831130120 25 140 0.0 0.0 0.00 0.00 0.00 89 1020.4
20260831130046 24 140 0.0 0.0 0.00 0.00 0.00 90 1020.4
20260831125953 24 121 0.0 0.0 0.00 0.00 0.00 90 1020.4
20260831125838 24 121 0.0 0.0 0.00 0.00 0.00 90 1020.3
20260831125745 24 121 0.0 0.0 0.00 0.00 0.00 90 1020.3
20260831125652 24 92 0.0 0.0 0.00 0.00 0.00 91 1020.4
20260831125539 23 88 0.0 0.0 0.00 0.00 0.00 91 1020.3
20260831125429 23 114 0.0 0.0 0.00 0.00 0.00 92 1020.3
20260831125336 23 123 0.0 0.0 0.00 0.00 0.00 92 1020.3
20260831125223 23 70 0.0 0.0 0.00 0.00 0.00 92 1020.3
20260831125130 23 86 0.0 0.0 0.00 0.00 0.00 93 1020.4
20260831125038 23 111 0.0 0.0 0.00 0.00 0.00 94 1020.3
20260831124930 23 99 0.0 0.0 0.00 0.00 0.00 94 1020.3
20260831124900 23 99 0.0 0.0 0.00 0.00 0.00 94 1020.3
20260831124634 23 350 0.0 0.0 0.00 0.00 0.00 94 1020.3
20260831124521 23 350 0.0 0.0 0.00 0.00 0.00 94 1020.3
20260831124429 23 350 0.0 0.0 0.00 0.00 0.00 94 1020.3
20260831124320 23 350 0.0 0.0 0.00 0.00 0.00 93 1020.2
20260831124228 23 350 0.0 0.0 0.00 0.00 0.00 93 1020.2
20260831124155 22 350 0.0 0.0 0.00 0.00 0.00 93 1020.2
20260831124022 22 350 0.0 0.0 0.00 0.00 0.00 93 1020.2
20260831123928 22 350 0.0 0.0 0.00 0.00 0.00 93 1020.2
20260831123820 22 350 0.0 0.0 0.00 0.00 0.00 93 1020.2
20260831123726 22 350 0.0 0.0 0.00 0.00 0.00 94 1020.2
20260831123634 22 350 0.0 0.0 0.00 0.00 0.00 94 1020.2
20260831123520 22 350 0.0 0.0 0.00 0.00 0.00 94 1020.2
20260831123428 22 350 0.0 0.0 0.00 0.00 0.00 94 1020.2
20260831123404 22 350 0.0 0.0 0.00 0.00 0.00 94 1020.2
20260831123138 22 350 0.0 0.0 0.00 0.00 0.00 94 1020.2
20260831123024 22 350 0.0 0.0 0.00 0.00 0.00 94 1020.1
20260831122933 22 350 0.0 0.0 0.00 0.00 0.00 94 1020.1
20260831122840 22 350 0.0 0.0 0.00 0.00 0.00 94 1020.1
20260831122731 22 350 0.0 0.0 0.00 0.00 0.00 94 1020.1
20260831122639 22 350 0.0 0.0 0.00 0.00 0.00 94 1020.1
20260831122526 22 350 0.0 0.0 0.00 0.00 0.00 94 1020.1
20260831122432 22 350 0.0 0.0 0.00 0.00 0.00 94 1020.1
20260831122320 22 350 0.0 0.0 0.00 0.00 0.00 94 1020.1
20260831122228 22 350 0.0 0.0 0.00 0.00 0.00 94 1020.0
20260831122139 22 350 0.0 0.0 0.00 0.00 0.00 94 1020.1
20260831122026 22 350 0.0 0.0 0.00 0.00 0.00 94 1020.1
20260831121933 22 350 0.0 0.0 0.00 0.00 0.00 94 1020.1
20260831121903 22 350 0.0 0.0 0.00 0.00 0.00 94 1020.1
20260831121621 22 350 0.0 0.0 0.00 0.00 0.00 94 1020.0
20260831121530 22 350 0.0 0.0 0.00 0.00 0.00 94 1019.9
20260831121437 22 350 0.0 0.0 0.00 0.00 0.00 94 1019.9
20260831121324 22 350 0.0 0.0 0.00 0.00 0.00 94 1019.9
20260831121231 22 350 0.0 0.0 0.00 0.00 0.00 94 1019.8
20260831121122 22 350 0.0 0.0 0.00 0.00 0.00 94 1019.9
20260831121029 22 350 0.0 0.0 0.00 0.00 0.00 94 1019.9
20260831120937 22 350 0.0 0.0 0.00 0.00 0.00 94 1019.9
20260831120844 22 350 0.0 0.0 0.00 0.00 0.00 94 1019.8
20260831120731 22 350 0.0 0.0 0.00 0.00 0.00 94 1019.8
20260831120638 22 350 0.0 0.0 0.00 0.00 0.00 94 1019.8
20260831120529 22 350 0.0 0.0 0.00 0.00 0.00 94 1019.8
20260831120456 22 350 0.0 0.0 0.00 0.00 0.00 94 1019.8
20260831120428 22 350 0.0 0.0 0.00 0.00 0.00 94 1019.9
20260831120121 22 350 0.0 0.0 0.00 0.00 0.00 94 1019.8
20260831120028 22 350 0.0 0.0 0.00 0.00 0.00 94 1019.8
20260831115920 22 350 0.0 0.0 0.00 0.00 0.00 94 1019.8
20260831115827 22 350 0.0 0.0 0.00 0.00 0.00 94 1019.7
20260831115735 22 350 0.0 0.0 0.00 0.00 0.00 94 1019.8
20260831115623 21 350 0.0 0.0 0.00 0.00 0.00 94 1019.7
20260831115530 21 350 0.0 0.0 0.00 0.00 0.00 93 1019.7
20260831115422 21 350 0.0 0.0 0.00 0.00 0.00 93 1019.6
20260831115329 21 350 0.0 0.0 0.00 0.00 0.00 93 1019.8
20260831115258 21 350 0.0 0.0 0.00 0.00 0.00 93 1019.8
20260831115125 21 350 0.0 0.0 0.00 0.00 0.00 93 1019.8
20260831115033 21 350 0.0 0.0 0.00 0.00 0.00 93 1019.8
20260831114920 21 350 0.0 0.0 0.00 0.00 0.00 93 1019.6
20260831114854 22 350 0.0 0.0 0.00 0.00 0.00 93 1019.6
20260831114627 22 350 0.0 0.0 0.00 0.00 0.00 93 1019.6
20260831114556 22 350 0.0 0.0 0.00 0.00 0.00 93 1019.7
20260831114442 22 350 0.0 0.0 0.00 0.00 0.00 93 1019.6
20260831114329 22 350 0.0 0.0 0.00 0.00 0.00 93 1019.6
20260831114221 22 350 0.0 0.0 0.00 0.00 0.00 94 1019.6
20260831114126 22 350 0.0 0.0 0.00 0.00 0.00 94 1019.6
20260831114034 22 350 0.0 0.0 0.00 0.00 0.00 94 1019.6
20260831113921 22 350 0.0 0.0 0.00 0.00 0.00 93 1019.7
20260831113828 22 350 0.0 0.0 0.00 0.00 0.00 93 1019.6
20260831113736 22 350 0.0 0.0 0.00 0.00 0.00 93 1019.6
20260831113647 22 350 0.0 0.0 0.00 0.00 0.00 93 1019.5
20260831113533 22 350 0.0 0.0 0.00 0.00 0.00 93 1019.5
20260831113500 22 350 0.0 0.0 0.00 0.00 0.00 93 1019.5
20260831113432 22 350 0.0 0.0 0.00 0.00 0.00 93 1019.6
20260831113124 22 350 0.0 0.0 0.00 0.00 0.00 93 1019.5
20260831113052 22 350 0.0 0.0 0.00 0.00 0.00 93 1019.4
20260831112921 22 350 0.0 0.0 0.00 0.00 0.00 93 1019.4
20260831112851 22 350 0.0 0.0 0.00 0.00 0.00 93 1019.4
20260831112736 22 350 0.0 0.0 0.00 0.00 0.00 93 1019.4
20260831112624 22 350 0.0 0.0 0.00 0.00 0.00 93 1019.4
20260831112532 22 350 0.0 0.0 0.00 0.00 0.00 93 1019.4
20260831112423 22 350 0.0 0.0 0.00 0.00 0.00 93 1019.4
20260831112332 22 350 0.0 0.0 0.00 0.00 0.00 93 1019.5
20260831112300 22 350 0.0 0.0 0.00 0.00 0.00 93 1019.4
20260831112146 22 350 0.0 0.0 0.00 0.00 0.00 93 1019.3
20260831112053 22 350 0.0 0.0 0.00 0.00 0.00 93 1019.4
20260831111939 22 350 0.0 0.0 0.00 0.00 0.00 93 1019.4
20260831111855 22 350 0.0 0.0 0.00 0.00 0.00 93 1019.4
20260831111630 22 350 0.0 0.0 0.00 0.00 0.00 93 1019.3
20260831111538 22 350 0.0 0.0 0.00 0.00 0.00 93 1019.4
20260831111424 22 350 0.0 0.0 0.00 0.00 0.00 93 1019.3
20260831111332 22 350 0.0 0.0 0.00 0.00 0.00 93 1019.4
20260831111224 22 350 0.0 0.0 0.00 0.00 0.00 93 1019.3
20260831111130 22 350 0.0 0.0 0.00 0.00 0.00 93 1019.3
20260831111037 22 350 0.0 0.0 0.00 0.00 0.00 93 1019.3
20260831110944 22 350 0.0 0.0 0.00 0.00 0.00 94 1019.3
20260831110831 22 350 0.0 0.0 0.00 0.00 0.00 94 1019.3
20260831110738 22 350 0.0 0.0 0.00 0.00 0.00 94 1019.3
20260831110629 22 350 0.0 0.0 0.00 0.00 0.00 94 1019.3
20260831110536 22 350 0.0 0.0 0.00 0.00 0.00 94 1019.4
20260831110423 22 350 0.0 0.0 0.00 0.00 0.00 94 1019.3
20260831110355 22 350 0.0 0.0 0.00 0.00 0.00 93 1019.3
20260831110128 22 350 0.0 0.0 0.00 0.00 0.00 93 1019.4
20260831110020 22 350 0.0 0.0 0.00 0.00 0.00 93 1019.4
20260831105947 22 350 0.0 0.0 0.00 0.00 0.00 93 1019.3
20260831105834 22 350 0.0 0.0 0.00 0.00 0.00 93 1019.3
20260831105721 22 350 0.0 0.0 0.00 0.00 0.00 93 1019.3
20260831105629 22 350 0.0 0.0 0.00 0.00 0.00 93 1019.3
20260831105534 22 350 0.0 0.0 0.00 0.00 0.00 93 1019.3
20260831105426 22 350 0.0 0.0 0.00 0.00 0.00 93 1019.3
20260831105332 22 350 0.0 0.0 0.00 0.00 0.00 93 1019.3
20260831105220 22 350 0.0 0.0 0.00 0.00 0.00 93 1019.3
20260831105128 22 350 0.0 0.0 0.00 0.00 0.00 93 1019.2
20260831105055 22 350 0.0 0.0 0.00 0.00 0.00 93 1019.2
20260831104923 22 350 0.0 0.0 0.00 0.00 0.00 93 1019.2
20260831104858 22 350 0.0 0.0 0.00 0.00 0.00 93 1019.2
20260831104631 22 350 0.0 0.0 0.00 0.00 0.00 93 1019.2
20260831104539 22 350 0.0 0.0 0.00 0.00 0.00 94 1019.1
20260831104427 22 350 0.0 0.0 0.00 0.00 0.00 94 1019.1
20260831104353 22 350 0.0 0.0 0.00 0.00 0.00 94 1019.2
20260831104222 22 350 0.0 0.0 0.00 0.00 0.00 94 1019.1
20260831104129 22 350 0.0 0.0 0.00 0.00 0.00 94 1019.1
20260831104057 22 350 0.0 0.0 0.00 0.00 0.00 94 1019.1
20260831103944 22 350 0.0 0.0 0.00 0.00 0.00 94 1019.0
20260831103831 22 350 0.0 0.0 0.00 0.00 0.00 94 1019.0
20260831103738 22 350 0.0 0.0 0.00 0.00 0.00 93 1018.9
20260831103630 22 350 0.0 0.0 0.00 0.00 0.00 93 1019.0
20260831103537 22 350 0.0 0.0 0.00 0.00 0.00 93 1018.9
20260831103503 22 350 0.0 0.0 0.00 0.00 0.00 94 1019.0
20260831103413 22 350 0.0 0.0 0.00 0.00 0.00 94 1019.0
20260831103125 22 350 0.0 0.0 0.00 0.00 0.00 94 1019.0
20260831103053 22 350 0.0 0.0 0.00 0.00 0.00 93 1019.0
20260831102922 22 350 0.0 0.0 0.00 0.00 0.00 94 1018.9
20260831102830 22 350 0.0 0.0 0.00 0.00 0.00 94 1019.0
20260831102737 22 350 0.0 0.0 0.00 0.00 0.00 94 1019.0
20260831102624 22 350 0.0 0.0 0.00 0.00 0.00 94 1018.9
20260831102532 22 350 0.0 0.0 0.00 0.00 0.00 94 1018.9
20260831102424 22 350 0.0 0.0 0.00 0.00 0.00 94 1018.8
20260831102332 22 350 0.0 0.0 0.00 0.00 0.00 94 1018.8
20260831102239 22 350 0.0 0.0 0.00 0.00 0.00 94 1018.9
20260831102126 22 350 0.0 0.0 0.00 0.00 0.00 94 1018.9
20260831102033 22 350 0.0 0.0 0.00 0.00 0.00 94 1018.9
20260831101941 22 350 0.0 0.0 0.00 0.00 0.00 94 1018.8
20260831101916 22 350 0.0 0.0 0.00 0.00 0.00 94 1018.8
20260831101629 22 350 0.0 0.0 0.00 0.00 0.00 94 1018.9
20260831101536 22 350 0.0 0.0 0.00 0.00 0.00 94 1018.8
20260831101422 22 350 0.0 0.0 0.00 0.00 0.00 94 1018.8
20260831101350 22 350 0.0 0.0 0.00 0.00 0.00 94 1018.7
20260831101256 22 350 0.0 0.0 0.00 0.00 0.00 94 1018.7
20260831101146 22 350 0.0 0.0 0.00 0.00 0.00 94 1018.7
20260831101032 22 350 0.0 0.0 0.00 0.00 0.00 94 1018.7
20260831100920 22 350 0.0 0.0 0.00 0.00 0.00 94 1018.7
20260831100827 22 350 0.0 0.0 0.00 0.00 0.00 94 1018.7
20260831100732 22 350 0.0 0.0 0.00 0.00 0.00 94 1018.7
20260831100623 22 350 0.0 0.0 0.00 0.00 0.00 94 1018.6
20260831100530 22 350 0.0 0.0 0.00 0.00 0.00 93 1018.6
20260831100409 22 350 0.0 0.0 0.00 0.00 0.00 93 1018.6
20260831100122 22 350 0.0 0.0 0.00 0.00 0.00 93 1018.5
20260831100053 22 350 0.0 0.0 0.00 0.00 0.00 93 1018.5
20260831095939 22 350 0.0 0.0 0.00 0.00 0.00 93 1018.5
20260831095826 22 350 0.0 0.0 0.00 0.00 0.00 93 1018.6
20260831095734 22 350 0.0 1.6 0.00 0.00 0.00 93 1018.6
20260831095621 22 350 0.0 1.6 0.00 0.00 0.00 93 1018.6
20260831095528 22 350 0.0 1.6 0.00 0.00 0.00 93 1018.6
20260831095420 22 350 0.0 3.2 0.00 0.00 0.00 93 1018.6
20260831095325 22 350 0.0 3.2 0.00 0.00 0.00 93 1018.5
20260831095233 22 350 0.0 3.2 0.00 0.00 0.00 93 1018.6
20260831095120 22 350 0.0 3.2 0.00 0.00 0.00 93 1018.5
20260831095027 22 350 0.0 3.2 0.00 0.00 0.00 92 1018.4
20260831094909 22 350 1.6 3.2 0.00 0.00 0.00 92 1018.5
20260831094623 22 350 0.0 3.2 0.00 0.00 0.00 92 1018.6
20260831094531 22 350 1.6 3.2 0.00 0.00 0.00 92 1018.6
20260831094423 22 350 1.6 3.2 0.00 0.00 0.00 92 1018.6
20260831094330 22 350 1.6 3.2 0.00 0.00 0.00 92 1018.5
20260831094257 22 350 1.6 3.2 0.00 0.00 0.00 92 1018.5
20260831094123 22 350 1.6 3.2 0.00 0.00 0.00 92 1018.5
20260831094051 22 350 1.6 3.2 0.00 0.00 0.00 92 1018.5
20260831093938 22 350 1.6 3.2 0.00 0.00 0.00 92 1018.5
20260831093825 22 350 1.6 3.2 0.00 0.00 0.00 92 1018.6
20260831093736 22 350 1.6 3.2 0.00 0.00 0.00 91 1018.6
20260831093623 22 350 0.0 3.2 0.00 0.00 0.00 91 1018.6
20260831093531 22 350 1.6 3.2 0.00 0.00 0.00 91 1018.6
20260831093412 22 350 1.6 3.2 0.00 0.00 0.00 91 1018.6
20260831093126 22 350 3.2 3.2 0.00 0.00 0.00 91 1018.5
20260831093035 22 350 3.2 3.2 0.00 0.00 0.00 91 1018.6
20260831092923 22 350 1.6 3.2 0.00 0.00 0.00 91 1018.6
20260831092831 22 350 3.2 3.2 0.00 0.00 0.00 91 1018.5
20260831092722 22 350 3.2 3.2 0.00 0.00 0.00 91 1018.5
20260831092630 22 350 1.6 3.2 0.00 0.00 0.00 91 1018.6
20260831092536 22 251 1.6 3.2 0.00 0.00 0.00 91 1018.5
20260831092443 22 251 1.6 3.2 0.00 0.00 0.00 90 1018.6
20260831092329 22 251 1.6 3.2 0.00 0.00 0.00 90 1018.6
20260831092237 22 251 1.6 1.6 0.00 0.00 0.00 90 1018.5
20260831092145 22 251 0.0 1.6 0.00 0.00 0.00 90 1018.6
20260831092034 22 251 0.0 1.6 0.00 0.00 0.00 90 1018.6
20260831091911 22 251 0.0 0.0 0.00 0.00 0.00 91 1018.6
20260831091622 23 251 0.0 0.0 0.00 0.00 0.00 91 1018.5
20260831091534 23 251 0.0 0.0 0.00 0.00 0.00 90 1018.6
20260831091420 23 251 0.0 0.0 0.00 0.00 0.00 90 1018.6
20260831091328 23 251 0.0 0.0 0.00 0.00 0.00 90 1018.5
20260831091256 23 251 0.0 0.0 0.00 0.00 0.00 90 1018.5
20260831091123 23 251 0.0 0.0 0.00 0.00 0.00 90 1018.6
20260831091049 23 251 0.0 0.0 0.00 0.00 0.00 90 1018.5
20260831090921 23 251 0.0 1.6 0.00 0.00 0.00 90 1018.6
20260831090828 23 251 0.0 1.6 0.00 0.00 0.00 90 1018.5
20260831090735 23 251 0.0 1.6 0.00 0.00 0.00 90 1018.5
20260831090623 23 251 0.0 3.2 0.00 0.00 0.00 90 1018.5
20260831090531 23 251 0.0 3.2 0.00 0.00 0.00 90 1018.4
20260831090414 23 251 0.0 3.2 0.00 0.00 0.00 90 1018.4
20260831090147 23 251 0.0 3.2 0.00 0.00 0.00 90 1018.5
20260831090034 23 251 1.6 3.2 0.00 0.00 0.00 90 1018.5
20260831085922 23 251 1.6 3.2 0.00 0.00 0.00 90 1018.5
20260831085829 23 251 1.6 3.2 0.00 0.00 0.00 90 1018.4
20260831085721 23 251 0.0 3.2 0.00 0.00 0.00 90 1018.5
20260831085629 23 144 0.0 3.2 0.00 0.00 0.00 90 1018.5
20260831085536 23 144 0.0 3.2 0.00 0.00 0.00 90 1018.4
20260831085424 23 144 0.0 3.2 0.00 0.00 0.00 90 1018.5
20260831085332 23 144 0.0 3.2 0.00 0.00 0.00 90 1018.4
20260831085220 23 144 0.0 3.2 0.00 0.00 0.00 90 1018.5
20260831085150 23 144 0.0 3.2 0.00 0.00 0.00 91 1018.4
20260831085056 23 144 1.6 3.2 0.00 0.00 0.00 91 1018.4
20260831084913 23 144 1.6 3.2 0.00 0.00 0.00 91 1018.4
20260831084646 23 144 0.0 3.2 0.00 0.00 0.00 91 1018.5
20260831084557 23 144 0.0 3.2 0.00 0.00 0.00 90 1018.4
20260831084423 23 144 0.0 3.2 0.00 0.00 0.00 90 1018.4
20260831084332 23 144 0.0 3.2 0.00 0.00 0.00 90 1018.4
20260831084219 23 144 0.0 3.2 0.00 0.00 0.00 90 1018.4
20260831084127 23 144 0.0 3.2 0.00 0.00 0.00 90 1018.4
20260831084034 23 144 1.6 3.2 0.00 0.00 0.00 90 1018.4
20260831083925 23 144 1.6 3.2 0.00 0.00 0.00 90 1018.3
20260831083834 23 144 1.6 3.2 0.00 0.00 0.00 90 1018.4
20260831083720 23 144 1.6 3.2 0.00 0.00 0.00 90 1018.3
20260831083648 23 144 1.6 3.2 0.00 0.00 0.00 90 1018.3
20260831083535 23 144 1.6 3.2 0.00 0.00 0.00 89 1018.3
20260831083427 23 144 1.6 3.2 0.00 0.00 0.00 89 1018.3
20260831083359 23 144 1.6 3.2 0.00 0.00 0.00 90 1018.3
20260831083133 23 144 0.0 3.2 0.00 0.00 0.00 90 1018.3
20260831083041 23 144 0.0 3.2 0.00 0.00 0.00 90 1018.2
20260831082927 23 144 0.0 3.2 0.00 0.00 0.00 90 1018.2
20260831082855 23 144 0.0 3.2 0.00 0.00 0.00 90 1018.1
20260831082726 23 144 1.6 3.2 0.00 0.00 0.00 90 1018.1
20260831082632 23 144 1.6 3.2 0.00 0.00 0.00 91 1018.2
20260831082519 23 144 1.6 3.2 0.00 0.00 0.00 91 1018.2
20260831082428 23 144 1.6 3.2 0.00 0.00 0.00 91 1018.1
20260831082336 23 144 1.6 3.2 0.00 0.00 0.00 91 1018.1
20260831082227 23 144 1.6 3.2 0.00 0.00 0.00 91 1018.2
20260831082153 23 144 1.6 3.2 0.00 0.00 0.00 91 1018.1
20260831082039 23 144 1.6 3.2 0.00 0.00 0.00 91 1018.1
20260831081946 23 144 1.6 3.2 0.00 0.00 0.00 91 1018.0
20260831081855 23 144 1.6 3.2 0.00 0.00 0.00 91 1018.0
20260831081632 23 342 1.6 3.2 0.00 0.00 0.00 91 1018.1
20260831081520 23 342 1.6 3.2 0.00 0.00 0.00 91 1018.1
20260831081427 23 342 1.6 3.2 0.00 0.00 0.00 91 1018.1
20260831081335 23 342 1.6 3.2 0.00 0.00 0.00 91 1018.1
20260831081224 23 342 0.0 3.2 0.00 0.00 0.00 91 1018.1
20260831081131 23 342 0.0 1.6 0.00 0.00 0.00 92 1018.1
20260831081024 23 342 0.0 1.6 0.00 0.00 0.00 92 1018.0
20260831080932 23 342 0.0 1.6 0.00 0.00 0.00 92 1018.0
20260831080838 23 342 0.0 1.6 0.00 0.00 0.00 91 1018.0
20260831080726 23 342 0.0 0.0 0.00 0.00 0.00 91 1018.0
20260831080632 23 342 0.0 0.0 0.00 0.00 0.00 91 1018.0
20260831080523 23 342 0.0 0.0 0.00 0.00 0.00 91 1018.0
20260831080431 23 342 0.0 0.0 0.00 0.00 0.00 91 1018.0
20260831080402 23 342 0.0 0.0 0.00 0.00 0.00 91 1018.0
20260831080135 23 342 0.0 0.0 0.00 0.00 0.00 91 1018.1
20260831080023 23 342 0.0 0.0 0.00 0.00 0.00 91 1018.1
20260831075955 23 342 0.0 0.0 0.00 0.00 0.00 91 1018.1
20260831075821 23 342 0.0 0.0 0.00 0.00 0.00 91 1018.1
20260831075727 23 342 0.0 0.0 0.00 0.00 0.00 91 1018.1
20260831075635 23 342 0.0 0.0 0.00 0.00 0.00 90 1018.0
20260831075523 23 342 0.0 0.0 0.00 0.00 0.00 90 1018.0
20260831075430 23 342 0.0 0.0 0.00 0.00 0.00 90 1018.1
20260831075342 23 342 0.0 0.0 0.00 0.00 0.00 90 1018.1
20260831075229 23 342 0.0 0.0 0.00 0.00 0.00 90 1018.1
20260831075136 23 342 0.0 0.0 0.00 0.00 0.00 90 1018.1
20260831075023 23 342 0.0 0.0 0.00 0.00 0.00 90 1018.1
20260831074925 23 342 0.0 0.0 0.00 0.00 0.00 90 1018.1
20260831074638 23 342 0.0 0.0 0.00 0.00 0.00 90 1018.1
20260831074525 23 342 0.0 0.0 0.00 0.00 0.00 90 1018.1
20260831074433 23 342 0.0 0.0 0.00 0.00 0.00 90 1018.0
20260831074321 23 342 0.0 1.6 0.00 0.00 0.00 90 1018.1
20260831074233 23 342 0.0 1.6 0.00 0.00 0.00 90 1018.1
20260831074120 23 342 0.0 1.6 0.00 0.00 0.00 90 1018.1
20260831074047 23 342 0.0 1.6 0.00 0.00 0.00 90 1018.1
20260831073954 23 342 0.0 1.6 0.00 0.00 0.00 90 1018.1
20260831073820 23 342 0.0 1.6 0.00 0.00 0.00 90 1018.1
20260831073728 23 342 0.0 1.6 0.00 0.00 0.00 90 1018.1
20260831073655 23 342 0.0 1.6 0.00 0.00 0.00 89 1018.1
20260831073546 23 342 0.0 1.6 0.00 0.00 0.00 89 1018.2
20260831073432 23 342 0.0 3.2 0.00 0.00 0.00 89 1018.1
20260831073404 23 342 1.6 3.2 0.00 0.00 0.00 89 1018.1
20260831073137 23 342 1.6 3.2 0.00 0.00 0.00 90 1018.2
20260831073043 23 342 1.6 3.2 0.00 0.00 0.00 90 1018.2
20260831072934 23 342 1.6 3.2 0.00 0.00 0.00 90 1018.3
20260831072821 23 342 1.6 3.2 0.00 0.00 0.00 90 1018.3
20260831072728 23 342 1.6 3.2 0.00 0.00 0.00 90 1018.2
20260831072635 23 342 1.6 4.8 0.00 0.00 0.00 89 1018.3
20260831072524 23 342 1.6 4.8 0.00 0.00 0.00 89 1018.2
20260831072431 23 342 3.2 4.8 0.00 0.00 0.00 89 1018.3
20260831072322 23 342 1.6 4.8 0.00 0.00 0.00 89 1018.2
20260831072229 23 342 1.6 4.8 0.00 0.00 0.00 90 1018.2
20260831072137 23 342 1.6 4.8 0.00 0.00 0.00 90 1018.3
20260831072024 23 342 3.2 4.8 0.00 0.00 0.00 90 1018.3
20260831071909 23 342 3.2 4.8 0.00 0.00 0.00 90 1018.3
20260831071622 23 342 3.2 4.8 0.00 0.00 0.00 89 1018.4
20260831071549 23 342 3.2 4.8 0.00 0.00 0.00 89 1018.2
20260831071435 23 342 3.2 3.2 0.00 0.00 0.00 89 1018.2
20260831071324 23 342 3.2 3.2 0.00 0.00 0.00 89 1018.3
20260831071236 23 342 3.2 3.2 0.00 0.00 0.00 89 1018.2
20260831071123 23 342 3.2 3.2 0.00 0.00 0.00 89 1018.3
20260831071051 23 342 3.2 3.2 0.00 0.00 0.00 89 1018.2
20260831070958 23 342 3.2 3.2 0.00 0.00 0.00 89 1018.3
20260831070824 23 342 1.6 3.2 0.00 0.00 0.00 89 1018.3
20260831070732 23 342 1.6 3.2 0.00 0.00 0.00 89 1018.3
20260831070623 23 342 1.6 3.2 0.00 0.00 0.00 89 1018.2
20260831070529 23 342 1.6 3.2 0.00 0.00 0.00 89 1018.2
20260831070437 23 342 1.6 3.2 0.00 0.00 0.00 89 1018.2
20260831070408 23 342 1.6 3.2 0.00 0.00 0.00 89 1018.2
20260831070125 23 342 1.6 4.8 0.00 0.00 0.00 90 1018.2
20260831070032 23 342 1.6 4.8 0.00 0.00 0.00 90 1018.2
20260831065920 23 342 1.6 4.8 0.00 0.00 0.00 90 1018.2
20260831065828 23 342 0.0 4.8 0.00 0.00 0.00 90 1018.3
20260831065756 23 342 0.0 4.8 0.00 0.00 0.00 90 1018.2
20260831065622 23 342 1.6 4.8 0.00 0.00 0.00 90 1018.1
20260831065534 23 342 1.6 4.8 0.00 0.00 0.00 90 1018.2
20260831065420 23 342 3.2 4.8 0.00 0.00 0.00 90 1018.2
20260831065329 23 342 3.2 4.8 0.00 0.00 0.00 90 1018.2
20260831065235 23 342 3.2 4.8 0.00 0.00 0.00 89 1018.2
20260831065142 23 342 3.2 4.8 0.00 0.00 0.00 89 1018.1
20260831065030 23 342 3.2 4.8 0.00 0.00 0.00 89 1018.1
20260831064920 23 342 3.2 4.8 0.00 0.00 0.00 89 1018.2
20260831064853 23 342 3.2 4.8 0.00 0.00 0.00 89 1018.2
20260831064626 23 342 3.2 3.2 0.00 0.00 0.00 89 1018.2
20260831064534 23 342 3.2 3.2 0.00 0.00 0.00 89 1018.2
20260831064425 23 5 1.6 3.2 0.00 0.00 0.00 89 1018.2
20260831064333 23 5 1.6 3.2 0.00 0.00 0.00 89 1018.2
20260831064220 23 5 3.2 3.2 0.00 0.00 0.00 89 1018.2
20260831064129 23 5 3.2 3.2 0.00 0.00 0.00 88 1018.3
20260831064037 23 5 1.6 3.2 0.00 0.00 0.00 89 1018.2
20260831063924 23 5 1.6 4.8 0.00 0.00 0.00 89 1018.2
20260831063856 23 5 1.6 4.8 0.00 0.00 0.00 89 1018.2
20260831063723 23 5 1.6 4.8 0.00 0.00 0.00 89 1018.2
20260831063630 23 5 3.2 4.8 0.00 0.00 0.00 89 1018.3
20260831063537 23 5 3.2 4.8 0.00 0.00 0.00 89 1018.2
20260831063423 23 5 3.2 4.8 0.00 0.00 0.00 89 1018.2
20260831063357 23 5 3.2 4.8 0.00 0.00 0.00 89 1018.2
20260831063152 23 5 3.2 4.8 0.00 0.00 0.00 89 1018.2
20260831063039 23 5 3.2 4.8 0.00 0.00 0.00 89 1018.3
20260831062947 23 355 3.2 4.8 0.00 0.00 0.00 88 1018.3
20260831062834 23 355 3.2 4.8 0.00 0.00 0.00 88 1018.3
20260831062722 23 342 1.6 3.2 0.00 0.00 0.00 88 1018.2
20260831062633 23 342 1.6 3.2 0.00 0.00 0.00 88 1018.3
20260831062521 23 342 1.6 3.2 0.00 0.00 0.00 89 1018.3
20260831062448 23 342 1.6 4.8 0.00 0.00 0.00 89 1018.3
20260831062336 23 342 1.6 4.8 0.00 0.00 0.00 89 1018.2
20260831062244 23 342 1.6 4.8 0.00 0.00 0.00 89 1018.3
20260831062131 23 342 1.6 4.8 0.00 0.00 0.00 89 1018.3
20260831062042 23 342 1.6 4.8 0.00 0.00 0.00 89 1018.3
20260831061929 23 342 1.6 4.8 0.00 0.00 0.00 89 1018.3
20260831061858 23 342 3.2 4.8 0.00 0.00 0.00 89 1018.3
20260831061651 23 319 3.2 4.8 0.00 0.00 0.00 89 1018.4
20260831061537 23 322 3.2 4.8 0.00 0.00 0.00 89 1018.5
20260831061427 23 322 3.2 4.8 0.00 0.00 0.00 89 1018.4
20260831061335 23 355 3.2 4.8 0.00 0.00 0.00 89 1018.5
20260831061223 23 355 3.2 4.8 0.00 0.00 0.00 89 1018.5
20260831061152 23 15 1.6 4.8 0.00 0.00 0.00 89 1018.5
20260831061039 23 15 1.6 4.8 0.00 0.00 0.00 89 1018.6
20260831060925 23 15 3.2 4.8 0.00 0.00 0.00 89 1018.6
20260831060837 23 15 3.2 4.8 0.00 0.00 0.00 88 1018.5
20260831060725 23 15 3.2 4.8 0.00 0.00 0.00 88 1018.5
20260831060633 23 15 3.2 4.8 0.00 0.00 0.00 88 1018.6
20260831060519 23 15 3.2 4.8 0.00 0.00 0.00 88 1018.5
20260831060427 23 21 3.2 4.8 0.00 0.00 0.00 88 1018.5
20260831060401 23 40 3.2 4.8 0.00 0.00 0.00 88 1018.5
20260831060135 23 5 3.2 4.8 0.00 0.00 0.00 88 1018.5
20260831060023 23 5 3.2 4.8 0.00 0.00 0.00 88 1018.5
20260831055931 23 5 3.2 4.8 0.00 0.00 0.00 88 1018.5
20260831055838 23 5 3.2 4.8 0.00 0.00 0.00 88 1018.6
20260831055730 23 5 3.2 4.8 0.00 0.00 0.00 88 1018.6
20260831055638 23 5 3.2 4.8 0.00 0.00 0.00 88 1018.6
20260831055525 23 5 3.2 4.8 0.00 0.00 0.00 87 1018.6
20260831055433 23 5 3.2 4.8 0.00 0.00 0.00 87 1018.6
20260831055320 23 5 3.2 4.8 0.00 0.00 0.00 87 1018.6
20260831055247 23 14 3.2 4.8 0.00 0.00 0.00 87 1018.6
20260831055139 23 14 3.2 4.8 0.00 0.00 0.00 87 1018.6
20260831055025 23 14 3.2 4.8 0.00 0.00 0.00 87 1018.4
20260831054953 23 32 1.6 4.8 0.00 0.00 0.00 87 1018.4
20260831054924 23 32 1.6 3.2 0.00 0.00 0.00 87 1018.5
20260831054621 24 32 1.6 3.2 0.00 0.00 0.00 87 1018.4
20260831054527 24 32 1.6 3.2 0.00 0.00 0.00 87 1018.5
20260831054435 24 32 1.6 3.2 0.00 0.00 0.00 87 1018.4
20260831054343 24 32 3.2 3.2 0.00 0.00 0.00 87 1018.4
20260831054230 24 32 3.2 3.2 0.00 0.00 0.00 88 1018.4
20260831054138 24 32 3.2 3.2 0.00 0.00 0.00 88 1018.4
20260831054029 24 32 1.6 3.2 0.00 0.00 0.00 88 1018.3
20260831053936 24 32 1.6 3.2 0.00 0.00 0.00 87 1018.4
20260831053825 24 32 1.6 3.2 0.00 0.00 0.00 87 1018.3
20260831053733 24 32 1.6 1.6 0.00 0.00 0.00 88 1018.3
20260831053620 24 32 1.6 1.6 0.00 0.00 0.00 88 1018.4
20260831053528 24 32 0.0 1.6 0.00 0.00 0.00 88 1018.3
20260831053409 24 32 0.0 1.6 0.00 0.00 0.00 88 1018.3
20260831053123 24 32 0.0 1.6 0.00 0.00 0.00 88 1018.3
20260831053030 24 32 0.0 1.6 0.00 0.00 0.00 88 1018.3
20260831052922 24 32 0.0 1.6 0.00 0.00 0.00 88 1018.3
20260831052829 24 32 0.0 1.6 0.00 0.00 0.00 88 1018.3
20260831052756 24 32 0.0 1.6 0.00 0.00 0.00 88 1018.2
20260831052622 24 32 0.0 1.6 0.00 0.00 0.00 88 1018.2
20260831052530 24 32 0.0 1.6 0.00 0.00 0.00 88 1018.3
20260831052437 24 32 0.0 0.0 0.00 0.00 0.00 87 1018.3
20260831052330 24 32 0.0 0.0 0.00 0.00 0.00 88 1018.2
20260831052237 24 32 0.0 0.0 0.00 0.00 0.00 88 1018.3
20260831052145 24 32 0.0 0.0 0.00 0.00 0.00 88 1018.3
20260831052032 24 32 0.0 0.0 0.00 0.00 0.00 88 1018.2
20260831052000 24 32 0.0 0.0 0.00 0.00 0.00 88 1018.3
20260831051854 24 32 0.0 1.6 0.00 0.00 0.00 88 1018.3
20260831051628 24 32 0.0 3.2 0.00 0.00 0.00 88 1018.2
20260831051556 24 32 0.0 3.2 0.00 0.00 0.00 88 1018.2
20260831051422 24 32 0.0 3.2 0.00 0.00 0.00 88 1018.2
20260831051330 24 32 0.0 3.2 0.00 0.00 0.00 88 1018.3
20260831051238 24 32 0.0 3.2 0.00 0.00 0.00 88 1018.3
20260831051130 24 32 0.0 3.2 0.00 0.00 0.00 88 1018.2
20260831051036 24 32 0.0 3.2 0.00 0.00 0.00 88 1018.2
20260831050923 24 32 1.6 3.2 0.00 0.00 0.00 88 1018.2
20260831050831 24 32 1.6 3.2 0.00 0.00 0.00 87 1018.3
20260831050738 24 32 1.6 3.2 0.00 0.00 0.00 87 1018.2
20260831050629 24 32 1.6 3.2 0.00 0.00 0.00 88 1018.2
20260831050537 24 32 1.6 3.2 0.00 0.00 0.00 88 1018.2
20260831050425 24 32 0.0 1.6 0.00 0.00 0.00 88 1018.2
20260831050355 24 32 0.0 0.0 0.00 0.00 0.00 88 1018.2
20260831050127 24 32 0.0 1.6 0.00 0.00 0.00 88 1018.3
20260831050039 24 32 0.0 1.6 0.00 0.00 0.00 88 1018.2
20260831045926 24 32 0.0 1.6 0.00 0.00 0.00 87 1018.3
20260831045833 24 32 0.0 1.6 0.00 0.00 0.00 87 1018.3
20260831045720 24 32 0.0 1.6 0.00 0.00 0.00 87 1018.3
20260831045627 24 32 0.0 3.2 0.00 0.00 0.00 87 1018.3
20260831045555 24 32 0.0 3.2 0.00 0.00 0.00 88 1018.3
20260831045445 24 32 0.0 3.2 0.00 0.00 0.00 88 1018.3
20260831045332 24 32 0.0 3.2 0.00 0.00 0.00 88 1018.3
20260831045239 24 32 0.0 3.2 0.00 0.00 0.00 88 1018.3
20260831045126 24 32 1.6 3.2 0.00 0.00 0.00 88 1018.3
20260831045034 24 32 1.6 3.2 0.00 0.00 0.00 88 1018.3
20260831045002 24 32 1.6 3.2 0.00 0.00 0.00 88 1018.3
20260831044934 24 32 1.6 4.8 0.00 0.00 0.00 87 1018.2
20260831044627 24 32 0.0 4.8 0.00 0.00 0.00 87 1018.2
20260831044533 24 32 0.0 4.8 0.00 0.00 0.00 87 1018.2
20260831044421 24 32 1.6 4.8 0.00 0.00 0.00 87 1018.2
20260831044334 24 32 3.2 4.8 0.00 0.00 0.00 87 1018.2
20260831044221 24 32 3.2 4.8 0.00 0.00 0.00 87 1018.2
20260831044130 24 32 3.2 4.8 0.00 0.00 0.00 87 1018.2
20260831044037 24 32 3.2 4.8 0.00 0.00 0.00 87 1018.2
20260831043925 24 32 3.2 4.8 0.00 0.00 0.00 86 1018.2
20260831043852 24 32 1.6 4.8 0.00 0.00 0.00 86 1018.2
20260831043741 24 11 1.6 4.8 0.00 0.00 0.00 85 1018.2
20260831043627 24 11 1.6 4.8 0.00 0.00 0.00 85 1018.1
20260831043535 24 11 3.2 4.8 0.00 0.00 0.00 85 1018.2
20260831043443 24 11 3.2 4.8 0.00 0.00 0.00 85 1018.1
20260831043412 25 11 3.2 3.2 0.00 0.00 0.00 86 1018.1
20260831043130 25 11 1.6 4.8 0.00 0.00 0.00 86 1018.1
20260831043036 25 11 1.6 4.8 0.00 0.00 0.00 86 1018.1
20260831042924 25 11 1.6 4.8 0.00 0.00 0.00 86 1018.2
20260831042831 25 11 1.6 4.8 0.00 0.00 0.00 86 1018.2
20260831042739 25 11 1.6 4.8 0.00 0.00 0.00 86 1018.2
20260831042626 25 11 1.6 4.8 0.00 0.00 0.00 86 1018.3
20260831042558 25 11 3.2 4.8 0.00 0.00 0.00 86 1018.2
20260831042424 25 11 3.2 4.8 0.00 0.00 0.00 86 1018.2
20260831042330 25 11 3.2 4.8 0.00 0.00 0.00 86 1018.2
20260831042237 25 11 3.2 4.8 0.00 0.00 0.00 86 1018.2
20260831042145 25 11 3.2 4.8 0.00 0.00 0.00 86 1018.3
20260831042032 25 11 3.2 4.8 0.00 0.00 0.00 85 1018.2
20260831041923 25 11 3.2 4.8 0.00 0.00 0.00 85 1018.3
20260831041854 25 11 3.2 4.8 0.00 0.00 0.00 85 1018.3
20260831041535 25 11 3.2 4.8 0.00 0.00 0.00 85 1018.4
20260831041444 25 11 3.2 4.8 0.00 0.00 0.00 85 1018.3
20260831041415 25 11 3.2 3.2 0.00 0.00 0.00 85 1018.3
20260831041321 25 11 1.6 3.2 0.00 0.00 0.00 86 1018.4
20260831041127 25 11 0.0 3.2 0.00 0.00 0.00 86 1018.4
20260831041035 25 11 0.0 3.2 0.00 0.00 0.00 86 1018.3
20260831040922 25 11 0.0 3.2 0.00 0.00 0.00 85 1018.4
20260831040831 25 11 0.0 3.2 0.00 0.00 0.00 85 1018.4
20260831040722 25 11 0.0 3.2 0.00 0.00 0.00 85 1018.4
20260831040628 25 11 1.6 3.2 0.00 0.00 0.00 85 1018.3
20260831040537 25 11 1.6 3.2 0.00 0.00 0.00 85 1018.3
20260831040445 25 11 1.6 3.2 0.00 0.00 0.00 84 1018.4
20260831040415 25 11 1.6 3.2 0.00 0.00 0.00 82 1018.4
20260831040130 25 11 1.6 3.2 0.00 0.00 0.00 83 1018.4
20260831040038 25 11 1.6 3.2 0.00 0.00 0.00 82 1018.3
20260831035925 25 11 1.6 3.2 0.00 0.00 0.00 82 1018.2
20260831035833 25 11 0.0 1.6 0.00 0.00 0.00 82 1018.4
20260831035720 25 11 0.0 0.0 0.00 0.00 0.00 83 1018.2
20260831035647 25 11 0.0 0.0 0.00 0.00 0.00 83 1018.2
20260831035538 25 11 0.0 0.0 0.00 0.00 0.00 83 1018.3
20260831035425 25 11 0.0 0.0 0.00 0.00 0.00 83 1018.3
20260831035333 25 11 0.0 0.0 0.00 0.00 0.00 84 1018.2
20260831035221 25 11 0.0 0.0 0.00 0.00 0.00 84 1018.2
20260831035129 25 11 0.0 0.0 0.00 0.00 0.00 84 1018.2
20260831035019 25 11 0.0 0.0 0.00 0.00 0.00 84 1018.2
20260831034927 25 11 0.0 0.0 0.00 0.00 0.00 84 1018.2
20260831034858 25 11 0.0 0.0 0.00 0.00 0.00 84 1018.2
20260831034632 25 11 0.0 0.0 0.00 0.00 0.00 84 1018.2
20260831034520 25 11 0.0 0.0 0.00 0.00 0.00 85 1018.3
20260831034452 25 11 0.0 0.0 0.00 0.00 0.00 85 1018.3
20260831034358 25 11 0.0 0.0 0.00 0.00 0.00 85 1018.3
20260831034224 25 11 0.0 0.0 0.00 0.00 0.00 85 1018.4
20260831034132 25 11 0.0 0.0 0.00 0.00 0.00 85 1018.3
20260831034019 25 11 0.0 0.0 0.00 0.00 0.00 85 1018.3
20260831033926 25 11 0.0 0.0 0.00 0.00 0.00 85 1018.3
20260831033838 25 11 0.0 0.0 0.00 0.00 0.00 84 1018.3
20260831033725 25 11 0.0 0.0 0.00 0.00 0.00 84 1018.3
20260831033631 25 11 0.0 0.0 0.00 0.00 0.00 84 1018.4
20260831033559 25 11 0.0 0.0 0.00 0.00 0.00 84 1018.3
20260831033425 25 11 0.0 0.0 0.00 0.00 0.00 84 1018.3
20260831033400 25 11 0.0 0.0 0.00 0.00 0.00 84 1018.3
20260831033153 25 11 0.0 0.0 0.00 0.00 0.00 84 1018.3
20260831033021 25 11 0.0 0.0 0.00 0.00 0.00 84 1018.3
20260831032929 25 11 0.0 0.0 0.00 0.00 0.00 84 1018.3
20260831032856 25 11 0.0 0.0 0.00 0.00 0.00 84 1018.4
20260831032743 25 11 0.0 0.0 0.00 0.00 0.00 84 1018.4
20260831032629 25 11 0.0 0.0 0.00 0.00 0.00 84 1018.4
20260831032521 25 11 0.0 0.0 0.00 0.00 0.00 84 1018.4
20260831032426 25 11 0.0 0.0 0.00 0.00 0.00 84 1018.4
20260831032335 25 11 0.0 0.0 0.00 0.00 0.00 84 1018.3
20260831032222 25 11 0.0 0.0 0.00 0.00 0.00 84 1018.3
20260831032130 25 11 0.0 0.0 0.00 0.00 0.00 84 1018.4
20260831032021 25 11 0.0 0.0 0.00 0.00 0.00 84 1018.4
20260831031929 25 11 0.0 0.0 0.00 0.00 0.00 85 1018.4
20260831031859 26 11 0.0 0.0 0.00 0.00 0.00 84 1018.4
20260831031632 26 11 0.0 0.0 0.00 0.00 0.00 84 1018.5
20260831031524 25 11 0.0 0.0 0.00 0.00 0.00 84 1018.5
20260831031431 26 11 0.0 0.0 0.00 0.00 0.00 84 1018.6
20260831031320 26 11 0.0 0.0 0.00 0.00 0.00 84 1018.6
20260831031227 26 11 0.0 0.0 0.00 0.00 0.00 84 1018.5
20260831031134 26 11 0.0 0.0 0.00 0.00 0.00 84 1018.6
20260831031021 26 11 0.0 0.0 0.00 0.00 0.00 83 1018.5
20260831030953 26 11 0.0 0.0 0.00 0.00 0.00 83 1018.5
20260831030839 26 11 0.0 0.0 0.00 0.00 0.00 83 1018.6
20260831030726 26 11 0.0 0.0 0.00 0.00 0.00 83 1018.6
20260831030631 26 11 0.0 0.0 0.00 0.00 0.00 83 1018.5
20260831030557 26 11 0.0 0.0 0.00 0.00 0.00 83 1018.5
20260831030424 26 11 0.0 0.0 0.00 0.00 0.00 83 1018.5
20260831030357 26 11 0.0 0.0 0.00 0.00 0.00 83 1018.5
20260831030131 26 11 0.0 0.0 0.00 0.00 0.00 83 1018.7
20260831030038 26 11 0.0 0.0 0.00 0.00 0.00 83 1018.6
20260831025926 26 11 0.0 1.6 0.00 0.00 0.00 82 1018.6
20260831025833 26 11 0.0 1.6 0.00 0.00 0.00 81 1018.8
20260831025723 26 11 0.0 1.6 0.00 0.00 0.00 80 1018.7
20260831025631 26 11 0.0 3.2 0.00 0.00 0.00 80 1018.6
20260831025539 26 11 0.0 3.2 0.00 0.00 0.00 80 1018.7
20260831025426 26 11 0.0 3.2 0.00 0.00 0.00 79 1018.7
20260831025354 26 11 0.0 3.2 0.00 0.00 0.00 80 1018.7
20260831025222 26 11 0.0 3.2 0.00 0.00 0.00 79 1018.7
20260831025133 26 11 1.6 3.2 0.00 0.00 0.00 79 1018.7
20260831025021 26 11 1.6 4.8 0.00 0.00 0.00 79 1018.7
20260831024927 26 11 1.6 4.8 0.00 0.00 0.00 79 1018.7
20260831024857 26 11 1.6 4.8 0.00 0.00 0.00 79 1018.7
20260831024651 26 11 1.6 4.8 0.00 0.00 0.00 79 1018.6
20260831024521 26 11 1.6 4.8 0.00 0.00 0.00 80 1018.8
20260831024429 26 11 3.2 4.8 0.00 0.00 0.00 80 1018.7
20260831024335 26 11 3.2 4.8 0.00 0.00 0.00 79 1018.7
20260831024223 26 11 3.2 4.8 0.00 0.00 0.00 79 1018.7
20260831024131 26 11 3.2 4.8 0.00 0.00 0.00 79 1018.7
20260831024021 26 11 3.2 4.8 0.00 0.00 0.00 79 1018.6
20260831023948 26 11 3.2 4.8 0.00 0.00 0.00 79 1018.7
20260831023855 26 11 3.2 4.8 0.00 0.00 0.00 79 1018.7
20260831023722 26 11 3.2 4.8 0.00 0.00 0.00 79 1018.7
20260831023629 26 11 3.2 4.8 0.00 0.00 0.00 78 1018.7
20260831023535 26 38 3.2 4.8 0.00 0.00 0.00 79 1018.7
20260831023428 26 38 1.6 4.8 0.00 0.00 0.00 80 1018.6
20260831023359 26 38 1.6 3.2 0.00 0.00 0.00 80 1018.6
20260831023132 26 38 0.0 1.6 0.00 0.00 0.00 80 1018.6
20260831023019 26 38 0.0 0.0 0.00 0.00 0.00 80 1018.6
20260831022926 26 38 0.0 0.0 0.00 0.00 0.00 79 1018.6
20260831022856 26 38 0.0 0.0 0.00 0.00 0.00 79 1018.5
20260831022722 26 38 0.0 0.0 0.00 0.00 0.00 80 1018.5
20260831022630 26 38 0.0 0.0 0.00 0.00 0.00 80 1018.5
20260831022537 26 38 0.0 0.0 0.00 0.00 0.00 80 1018.5
20260831022426 26 38 0.0 0.0 0.00 0.00 0.00 79 1018.6
20260831022333 26 38 0.0 0.0 0.00 0.00 0.00 79 1018.5
20260831022246 26 38 0.0 1.6 0.00 0.00 0.00 78 1018.4
20260831022132 26 38 0.0 1.6 0.00 0.00 0.00 79 1018.5
20260831022038 26 38 0.0 1.6 0.00 0.00 0.00 79 1018.5
20260831021926 26 38 0.0 1.6 0.00 0.00 0.00 78 1018.4
20260831021859 26 38 0.0 1.6 0.00 0.00 0.00 78 1018.4
20260831021632 26 38 0.0 3.2 0.00 0.00 0.00 78 1018.4
20260831021520 26 38 0.0 3.2 0.00 0.00 0.00 78 1018.4
20260831021427 26 38 0.0 3.2 0.00 0.00 0.00 78 1018.4
20260831021335 26 38 0.0 3.2 0.00 0.00 0.00 78 1018.3
20260831021221 27 38 0.0 3.2 0.00 0.00 0.00 78 1018.4
20260831021131 27 38 0.0 3.2 0.00 0.00 0.00 77 1018.4
20260831021059 27 38 1.6 3.2 0.00 0.00 0.00 77 1018.3
20260831020947 27 38 1.6 3.2 0.00 0.00 0.00 77 1018.3
20260831020833 27 38 1.6 3.2 0.00 0.00 0.00 77 1018.3
20260831020721 27 38 3.2 3.2 0.00 0.00 0.00 76 1018.3
20260831020628 27 38 3.2 3.2 0.00 0.00 0.00 75 1018.4
20260831020539 27 107 3.2 3.2 0.00 0.00 0.00 76 1018.3
20260831020427 27 107 1.6 3.2 0.00 0.00 0.00 75 1018.3
20260831020358 27 107 1.6 3.2 0.00 0.00 0.00 75 1018.3
20260831020132 27 107 0.0 1.6 0.00 0.00 0.00 75 1018.3
20260831020023 27 107 0.0 1.6 0.00 0.00 0.00 75 1018.3
20260831015930 27 107 0.0 1.6 0.00 0.00 0.00 75 1018.3
20260831015836 27 107 0.0 1.6 0.00 0.00 0.00 75 1018.2
20260831015744 27 107 0.0 1.6 0.00 0.00 0.00 74 1018.3
20260831015631 27 107 0.0 1.6 0.00 0.00 0.00 74 1018.3
20260831015538 27 107 0.0 1.6 0.00 0.00 0.00 75 1018.3
20260831015430 27 107 0.0 3.2 0.00 0.00 0.00 75 1018.3
20260831015339 27 107 0.0 3.2 0.00 0.00 0.00 75 1018.1
20260831015226 27 107 0.0 3.2 0.00 0.00 0.00 75 1018.2
20260831015132 27 107 1.6 3.2 0.00 0.00 0.00 75 1018.2
20260831015020 27 107 1.6 3.2 0.00 0.00 0.00 75 1018.1
20260831014946 27 107 1.6 3.2 0.00 0.00 0.00 75 1018.0
20260831014921 27 107 1.6 3.2 0.00 0.00 0.00 73 1018.0
20260831014633 28 107 1.6 3.2 0.00 0.00 0.00 74 1018.1
20260831014520 28 107 1.6 3.2 0.00 0.00 0.00 73 1018.1
20260831014428 28 107 1.6 3.2 0.00 0.00 0.00 73 1018.1
20260831014320 28 107 1.6 3.2 0.00 0.00 0.00 72 1018.1
20260831014228 28 107 1.6 3.2 0.00 0.00 0.00 73 1018.1
20260831014136 28 107 1.6 3.2 0.00 0.00 0.00 72 1018.1
20260831014043 28 107 1.6 3.2 0.00 0.00 0.00 71 1018.0
20260831013929 28 107 1.6 3.2 0.00 0.00 0.00 72 1018.0
20260831013837 28 107 1.6 3.2 0.00 0.00 0.00 72 1018.0
20260831013745 28 107 1.6 3.2 0.00 0.00 0.00 72 1018.1
20260831013656 28 107 1.6 3.2 0.00 0.00 0.00 71 1018.0
20260831013522 28 107 1.6 3.2 0.00 0.00 0.00 71 1018.1
20260831013449 28 107 1.6 3.2 0.00 0.00 0.00 71 1018.0
20260831013420 28 107 1.6 3.2 0.00 0.00 0.00 71 1018.0
20260831013132 28 107 1.6 3.2 0.00 0.00 0.00 71 1018.0
20260831013024 28 107 0.0 3.2 0.00 0.00 0.00 71 1018.1
20260831012952 28 107 0.0 3.2 0.00 0.00 0.00 71 1018.0
20260831012838 28 107 0.0 3.2 0.00 0.00 0.00 70 1018.1
20260831012725 28 107 0.0 3.2 0.00 0.00 0.00 70 1018.1
20260831012653 28 107 1.6 3.2 0.00 0.00 0.00 70 1018.0
20260831012520 28 107 1.6 3.2 0.00 0.00 0.00 69 1018.0
20260831012431 28 107 0.0 1.6 0.00 0.00 0.00 69 1018.0
20260831012338 28 107 0.0 1.6 0.00 0.00 0.00 70 1017.9
20260831012225 29 107 0.0 1.6 0.00 0.00 0.00 70 1018.0
20260831012134 29 107 0.0 3.2 0.00 0.00 0.00 70 1017.9
20260831012021 29 107 0.0 3.2 0.00 0.00 0.00 69 1018.0
20260831011929 29 107 0.0 3.2 0.00 0.00 0.00 68 1017.9
20260831011905 29 107 0.0 4.8 0.00 0.00 0.00 68 1017.9
20260831011659 29 107 0.0 4.8 0.00 0.00 0.00 68 1017.9
20260831011525 29 107 1.6 4.8 0.00 0.00 0.00 68 1017.9
20260831011432 29 107 1.6 4.8 0.00 0.00 0.00 68 1017.8
20260831011324 29 107 1.6 4.8 0.00 0.00 0.00 68 1017.8
20260831011230 29 107 3.2 6.4 0.00 0.00 0.00 68 1017.7
20260831011137 29 107 3.2 6.4 0.00 0.00 0.00 68 1017.7
20260831011025 29 107 3.2 6.4 0.00 0.00 0.00 67 1017.6
20260831010932 29 115 3.2 6.4 0.00 0.00 0.00 68 1017.6
20260831010838 29 120 3.2 6.4 0.00 0.00 0.00 68 1017.6
20260831010729 29 89 3.2 6.4 0.00 0.00 0.00 67 1017.6
20260831010636 29 119 3.2 6.4 0.00 0.00 0.00 67 1017.6
20260831010524 30 104 3.2 6.4 0.00 0.00 0.00 67 1017.6
20260831010432 30 124 3.2 8.0 0.00 0.00 0.00 67 1017.5
20260831010403 30 107 3.2 8.0 0.00 0.00 0.00 66 1017.5
20260831010121 30 117 3.2 8.0 0.00 0.00 0.00 66 1017.5
20260831010029 30 128 3.2 8.0 0.00 0.00 0.00 66 1017.5
20260831005956 30 136 3.2 8.0 0.00 0.00 0.00 66 1017.5
20260831005823 30 122 3.2 8.0 0.00 0.00 0.00 66 1017.4
20260831005731 30 128 3.2 8.0 0.00 0.00 0.00 66 1017.5
20260831005622 30 131 3.2 8.0 0.00 0.00 0.00 66 1017.4
20260831005529 30 128 4.8 8.0 0.00 0.00 0.00 66 1017.4
20260831005437 30 145 4.8 8.0 0.00 0.00 0.00 66 1017.4
20260831005325 30 142 3.2 8.0 0.00 0.00 0.00 66 1017.3
20260831005233 30 121 3.2 6.4 0.00 0.00 0.00 65 1017.4
20260831005139 30 105 3.2 6.4 0.00 0.00 0.00 65 1017.4
20260831005031 30 123 3.2 6.4 0.00 0.00 0.00 66 1017.4
20260831004959 30 120 3.2 6.4 0.00 0.00 0.00 66 1017.4
20260831004930 30 101 3.2 6.4 0.00 0.00 0.00 65 1017.4
20260831004643 30 131 3.2 6.4 0.00 0.00 0.00 65 1017.4
20260831004528 30 149 3.2 8.0 0.00 0.00 0.00 65 1017.4
20260831004455 30 161 1.6 11.3 0.00 0.00 0.00 65 1017.5
20260831004327 30 143 1.6 11.3 0.00 0.00 0.00 65 1017.4
20260831004253 30 143 1.6 11.3 0.00 0.00 0.00 65 1017.4
20260831004200 30 161 1.6 11.3 0.00 0.00 0.00 65 1017.4
20260831004046 30 146 3.2 11.3 0.00 0.00 0.00 65 1017.4
20260831003933 30 150 4.8 11.3 0.00 0.00 0.00 65 1017.4
20260831003822 30 174 4.8 11.3 0.00 0.00 0.00 65 1017.4
20260831003733 30 145 6.4 11.3 0.00 0.00 0.00 65 1017.5
20260831003620 30 138 4.8 11.3 0.00 0.00 0.00 64 1017.5
20260831003528 30 137 4.8 8.0 0.00 0.00 0.00 65 1017.4
20260831003435 30 190 4.8 8.0 0.00 0.00 0.00 64 1017.4
20260831003406 30 174 4.8 8.0 0.00 0.00 0.00 65 1017.4
20260831003124 30 139 4.8 8.0 0.00 0.00 0.00 64 1017.4
20260831003031 30 123 4.8 8.0 0.00 0.00 0.00 64 1017.3
20260831002938 30 159 3.2 8.0 0.00 0.00 0.00 64 1017.4
20260831002826 30 138 3.2 12.9 0.00 0.00 0.00 64 1017.3
20260831002733 30 176 3.2 12.9 0.00 0.00 0.00 64 1017.4
20260831002645 30 213 3.2 12.9 0.00 0.00 0.00 64 1017.4
20260831002530 30 121 3.2 12.9 0.00 0.00 0.00 64 1017.3
20260831002437 30 157 3.2 12.9 0.00 0.00 0.00 64 1017.3
20260831002323 30 153 4.8 12.9 0.00 0.00 0.00 64 1017.3
20260831002231 30 139 4.8 12.9 0.00 0.00 0.00 64 1017.4
20260831002138 30 165 6.4 12.9 0.00 0.00 0.00 64 1017.4
20260831002029 30 189 6.4 11.3 0.00 0.00 0.00 64 1017.4
20260831001937 30 208 4.8 12.9 0.00 0.00 0.00 64 1017.4
20260831001908 30 171 3.2 12.9 0.00 0.00 0.00 64 1017.4
20260831001620 30 171 4.8 12.9 0.00 0.00 0.00 63 1017.4
20260831001531 30 171 4.8 12.9 0.00 0.00 0.00 63 1017.4
20260831001458 30 165 4.8 12.9 0.00 0.00 0.00 63 1017.4
20260831001326 30 171 4.8 12.9 0.00 0.00 0.00 63 1017.5
20260831001232 30 171 8.0 12.9 0.00 0.00 0.00 63 1017.5
20260831001120 30 180 6.4 12.9 0.00 0.00 0.00 63 1017.5
20260831001028 31 200 4.8 12.9 0.00 0.00 0.00 63 1017.6
20260831000921 31 209 8.0 12.9 0.00 0.00 0.00 63 1017.5
20260831000829 31 149 8.0 12.9 0.00 0.00 0.00 63 1017.4
20260831000736 31 136 6.4 12.9 0.00 0.00 0.00 63 1017.5
20260831000624 31 140 4.8 11.3 0.00 0.00 0.00 63 1017.5
20260831000552 31 180 6.4 11.3 0.00 0.00 0.00 63 1017.5
20260831000439 31 153 6.4 11.3 0.00 0.00 0.00 63 1017.5
20260831000355 31 180 6.4 11.3 0.00 0.00 0.00 63 1017.5
20260831000127 31 196 6.4 11.3 0.00 0.00 0.00 63 1017.5
20260831000034 31 147 8.0 11.3 0.00 0.00 0.00 63 1017.6
20260830235922 31 161 6.4 11.3 0.00 0.00 0.00 63 1017.6
20260830235851 31 159 4.8 8.0 0.00 0.00 0.00 63 1017.5
20260830235721 31 191 4.8 8.0 0.00 0.00 0.00 63 1017.5
20260830235628 31 117 4.8 11.3 0.00 0.00 0.00 63 1017.5
20260830235535 31 142 6.4 11.3 0.00 0.00 0.00 62 1017.5
20260830235422 31 138 6.4 11.3 0.00 0.00 0.00 63 1017.6
20260830235329 31 115 4.8 11.3 0.00 0.00 0.00 62 1017.6
20260830235220 31 185 4.8 11.3 0.00 0.00 0.00 62 1017.5
20260830235127 31 178 3.2 11.3 0.00 0.00 0.00 62 1017.5
20260830235034 31 162 3.2 12.9 0.00 0.00 0.00 62 1017.5
20260830235002 31 205 4.8 12.9 0.00 0.00 0.00 62 1017.5
20260830234933 31 177 4.8 12.9 0.00 0.00 0.00 62 1017.4
20260830234628 31 186 3.2 12.9 0.00 0.00 0.00 62 1017.5
20260830234536 31 142 3.2 12.9 0.00 0.00 0.00 61 1017.5
20260830234423 31 221 6.4 12.9 0.00 0.00 0.00 61 1017.5
20260830234349 31 165 8.0 12.9 0.00 0.00 0.00 61 1017.4
20260830234236 31 164 8.0 12.9 0.00 0.00 0.00 61 1017.4
20260830234123 31 172 8.0 12.9 0.00 0.00 0.00 61 1017.4
20260830234029 31 181 9.7 12.9 0.00 0.00 0.00 61 1017.5
20260830233921 31 184 6.4 12.9 0.00 0.00 0.00 61 1017.4
20260830233829 31 202 4.8 12.9 0.00 0.00 0.00 61 1017.4
20260830233736 31 200 6.4 12.9 0.00 0.00 0.00 61 1017.5
20260830233643 31 187 6.4 12.9 0.00 0.00 0.00 60 1017.5
20260830233530 31 164 6.4 12.9 0.00 0.00 0.00 60 1017.5
20260830233437 31 197 6.4 12.9 0.00 0.00 0.00 61 1017.5
20260830233412 31 186 8.0 14.5 0.00 0.00 0.00 60 1017.5
20260830233125 32 159 9.7 14.5 0.00 0.00 0.00 60 1017.5
20260830233031 32 146 9.7 12.9 0.00 0.00 0.00 60 1017.5
20260830232959 32 161 8.0 12.9 0.00 0.00 0.00 60 1017.5
20260830232830 32 135 8.0 12.9 0.00 0.00 0.00 60 1017.5
20260830232738 32 142 6.4 11.3 0.00 0.00 0.00 60 1017.6
20260830232625 32 115 4.8 9.7 0.00 0.00 0.00 60 1017.6
20260830232531 32 179 6.4 9.7 0.00 0.00 0.00 60 1017.6
20260830232438 32 229 6.4 9.7 0.00 0.00 0.00 59 1017.6
20260830232325 32 217 6.4 9.7 0.00 0.00 0.00 59 1017.6
20260830232236 32 192 6.4 9.7 0.00 0.00 0.00 59 1017.6
20260830232143 32 185 6.4 9.7 0.00 0.00 0.00 59 1017.6
20260830232030 32 200 6.4 9.7 0.00 0.00 0.00 59 1017.6
20260830231959 32 204 4.8 9.7 0.00 0.00 0.00 59 1017.6
20260830231908 32 209 4.8 11.3 0.00 0.00 0.00 59 1017.6
20260830231625 32 176 4.8 9.7 0.00 0.00 0.00 60 1017.6
20260830231533 32 193 6.4 9.7 0.00 0.00 0.00 59 1017.5
20260830231420 32 200 4.8 9.7 0.00 0.00 0.00 60 1017.6
20260830231327 32 214 4.8 9.7 0.00 0.00 0.00 60 1017.6
20260830231255 32 180 4.8 11.3 0.00 0.00 0.00 60 1017.6
20260830231122 32 161 4.8 11.3 0.00 0.00 0.00 60 1017.6
20260830231034 32 212 6.4 11.3 0.00 0.00 0.00 60 1017.6
20260830230920 32 231 6.4 11.3 0.00 0.00 0.00 60 1017.6
20260830230829 32 225 6.4 12.9 0.00 0.00 0.00 60 1017.6
20260830230736 32 176 6.4 14.5 0.00 0.00 0.00 59 1017.6
20260830230624 32 213 6.4 14.5 0.00 0.00 0.00 60 1017.6
20260830230553 32 199 6.4 14.5 0.00 0.00 0.00 59 1017.6
20260830230443 32 180 6.4 14.5 0.00 0.00 0.00 59 1017.6
20260830230413 32 161 6.4 14.5 0.00 0.00 0.00 60 1017.6